Time,TemperatureF,DewpointF,PressureIn,WindDirection,WindDirectionDegrees,WindSpeedMPH,WindSpeedGustMPH,Humidity,HourlyPrecipIn,Conditions,Clouds,dailyrainin,SolarRadiationWatts/m^2,SoftwareType,DateUTC
2013-06-08 00:00:00,75.4,71.3,29.83,NE,56,0.0,3.2,87,0.00,,---,0.19,0.00,VWS V14.01,2013-06-08 05:00:00,
2013-06-08 00:02:00,75.4,71.3,29.83,NE,56,0.0,1.2,87,0.00,,---,0.00,0.00,VWS V14.01,2013-06-08 05:02:00,
2013-06-08 00:05:00,75.4,71.3,29.83,NE,56,0.0,1.2,87,0.00,,---,0.00,0.00,VWS V14.01,2013-06-08 05:05:00,
2013-06-08 00:07:00,75.4,71.3,29.83,NE,56,0.0,1.2,87,0.00,,---,0.00,0.00,VWS V14.01,2013-06-08 05:07:00,
2013-06-08 00:10:00,75.4,71.3,29.83,NE,56,0.0,1.2,87,0.00,,---,0.00,0.00,VWS V14.01,2013-06-08 05:10:00,
2013-06-08 00:12:00,75.4,71.3,29.83,NE,56,0.0,1.2,87,0.00,,---,0.00,0.00,VWS V14.01,2013-06-08 05:12:00,
2013-06-08 00:15:00,75.3,71.5,29.83,NE,56,0.0,1.2,88,0.00,,---,0.00,0.00,VWS V14.01,2013-06-08 05:15:00,
2013-06-08 00:17:00,75.1,71.3,29.83,NE,56,0.0,1.2,88,0.00,,---,0.00,0.00,VWS V14.01,2013-06-08 05:17:00,
2013-06-08 00:20:00,74.9,71.4,29.83,NE,56,0.0,1.2,89,0.00,,---,0.00,0.00,VWS V14.01,2013-06-08 05:20:00,
2013-06-08 00:22:00,74.9,71.4,29.83,NE,56,0.0,1.2,89,0.00,,---,0.00,0.00,VWS V14.01,2013-06-08 05:22:00,
2013-06-08 00:25:00,74.6,71.2,29.83,NE,56,0.0,1.2,89,0.00,,---,0.00,0.00,VWS V14.01,2013-06-08 05:25:00,
2013-06-08 00:27:00,74.6,71.2,29.83,NE,56,0.0,1.2,89,0.00,,---,0.00,0.00,VWS V14.01,2013-06-08 05:27:00,
2013-06-08 00:30:00,74.4,71.3,29.83,NE,56,0.0,1.2,90,0.00,,---,0.00,0.00,VWS V14.01,2013-06-08 05:30:00,
2013-06-08 00:32:00,74.2,71.1,29.83,NE,56,0.0,1.2,90,0.00,,---,0.00,0.00,VWS V14.01,2013-06-08 05:32:00,
2013-06-08 00:35:00,74.0,71.2,29.83,NE,56,1.0,2.2,91,0.00,,---,0.00,0.00,VWS V14.01,2013-06-08 05:35:00,
2013-06-08 00:37:00,74.0,71.2,29.83,NE,56,0.0,2.2,91,0.00,,---,0.00,0.00,VWS V14.01,2013-06-08 05:37:00,
2013-06-08 00:40:00,74.2,71.4,29.83,NE,56,0.0,3.2,91,0.00,,---,0.00,0.00,VWS V14.01,2013-06-08 05:40:00,
2013-06-08 00:42:00,74.4,71.6,29.83,NE,56,1.0,2.2,91,0.00,,---,0.00,0.00,VWS V14.01,2013-06-08 05:42:00,
2013-06-08 00:45:00,74.6,71.8,29.83,NE,56,0.0,2.2,91,0.00,,---,0.00,0.00,VWS V14.01,2013-06-08 05:45:00,
2013-06-08 00:47:00,74.6,71.8,29.82,NE,56,0.0,1.2,91,0.00,,---,0.00,0.00,VWS V14.01,2013-06-08 05:47:00,
2013-06-08 00:50:00,74.9,71.8,29.83,NE,56,0.0,2.2,90,0.00,,---,0.00,0.00,VWS V14.01,2013-06-08 05:50:00,
2013-06-08 00:52:00,74.9,71.8,29.82,NE,56,0.0,1.2,90,0.00,,---,0.00,0.00,VWS V14.01,2013-06-08 05:52:00,
2013-06-08 00:55:00,75.1,72.0,29.83,NE,56,0.0,1.2,90,0.00,,---,0.00,0.00,VWS V14.01,2013-06-08 05:55:00,
2013-06-08 00:57:00,75.1,72.0,29.82,NE,56,0.0,1.2,90,0.00,,---,0.00,0.00,VWS V14.01,2013-06-08 05:57:00,
2013-06-08 01:00:00,75.1,72.0,29.83,NE,56,0.0,1.2,90,0.00,,---,0.00,0.00,VWS V14.01,2013-06-08 06:00:00,
2013-06-08 01:02:00,75.1,72.0,29.82,NE,56,0.0,1.2,90,0.00,,---,0.00,0.00,VWS V14.01,2013-06-08 06:02:00,
2013-06-08 01:05:00,75.1,72.0,29.83,NE,56,0.0,1.2,90,0.00,,---,0.00,0.00,VWS V14.01,2013-06-08 06:05:00,
2013-06-08 01:07:00,75.1,72.0,29.82,NE,56,0.0,2.2,90,0.00,,---,0.00,0.00,VWS V14.01,2013-06-08 06:07:00,
2013-06-08 01:10:00,75.1,72.0,29.83,NE,56,0.0,2.2,90,0.00,,---,0.00,0.00,VWS V14.01,2013-06-08 06:10:00,
2013-06-08 01:12:00,75.3,72.2,29.82,NE,56,2.0,3.2,90,0.00,,---,0.00,0.00,VWS V14.01,2013-06-08 06:12:00,
2013-06-08 01:15:00,75.4,72.3,29.82,NE,56,1.0,4.2,90,0.00,,---,0.00,0.00,VWS V14.01,2013-06-08 06:15:00,
2013-06-08 01:17:00,75.4,72.3,29.82,NE,56,0.0,2.2,90,0.00,,---,0.00,0.00,VWS V14.01,2013-06-08 06:17:00,
2013-06-08 01:20:00,75.8,72.3,29.82,NE,56,0.0,3.2,89,0.00,,---,0.00,0.00,VWS V14.01,2013-06-08 06:20:00,
2013-06-08 01:22:00,75.8,72.3,29.82,NE,56,0.0,3.2,89,0.00,,---,0.00,0.00,VWS V14.01,2013-06-08 06:22:00,
2013-06-08 01:25:00,76.0,72.5,29.82,NE,56,0.0,3.2,89,0.00,,---,0.00,0.00,VWS V14.01,2013-06-08 06:25:00,
2013-06-08 01:27:00,76.0,72.2,29.82,NE,56,0.0,2.2,88,0.00,,---,0.00,0.00,VWS V14.01,2013-06-08 06:27:00,
2013-06-08 01:30:00,76.1,72.3,29.82,NE,56,1.0,4.2,88,0.00,,---,0.00,0.00,VWS V14.01,2013-06-08 06:30:00,
2013-06-08 01:32:00,76.1,72.3,29.82,NE,56,2.0,4.2,88,0.00,,---,0.00,0.00,VWS V14.01,2013-06-08 06:32:00,
2013-06-08 01:35:00,76.3,72.5,29.82,NE,56,0.0,4.2,88,0.00,,---,0.00,0.00,VWS V14.01,2013-06-08 06:35:00,
2013-06-08 01:37:00,76.3,72.5,29.82,NE,56,0.0,2.2,88,0.00,,---,0.00,0.00,VWS V14.01,2013-06-08 06:37:00,
2013-06-08 01:40:00,76.3,72.5,29.82,NE,56,0.0,3.2,88,0.00,,---,0.00,0.00,VWS V14.01,2013-06-08 06:40:00,
2013-06-08 01:42:00,76.3,72.5,29.82,NE,56,0.0,1.2,88,0.00,,---,0.00,0.00,VWS V14.01,2013-06-08 06:42:00,
2013-06-08 01:45:00,76.5,72.7,29.82,NE,56,0.0,3.2,88,0.00,,---,0.00,0.00,VWS V14.01,2013-06-08 06:45:00,
2013-06-08 01:47:00,76.5,72.7,29.82,NE,56,1.0,2.2,88,0.00,,---,0.00,0.00,VWS V14.01,2013-06-08 06:47:00,
2013-06-08 01:50:00,76.7,72.9,29.82,East,89,1.0,5.2,88,0.00,,---,0.00,0.00,VWS V14.01,2013-06-08 06:50:00,
2013-06-08 01:52:00,76.7,72.9,29.82,East,89,0.0,3.2,88,0.00,,---,0.00,0.00,VWS V14.01,2013-06-08 06:52:00,
2013-06-08 01:55:00,76.7,72.9,29.82,East,91,3.0,6.2,88,0.00,,---,0.00,0.00,VWS V14.01,2013-06-08 06:55:00,
2013-06-08 01:57:00,76.8,73.0,29.82,East,90,4.0,5.2,88,0.00,,---,0.00,0.00,VWS V14.01,2013-06-08 06:57:00,
2013-06-08 02:00:00,77.0,73.2,29.82,East,90,0.0,6.2,88,0.00,,---,0.00,0.00,VWS V14.01,2013-06-08 07:00:00,
2013-06-08 02:02:00,77.0,73.2,29.82,East,90,1.0,3.2,88,0.00,,---,0.00,0.00,VWS V14.01,2013-06-08 07:02:00,
2013-06-08 02:05:00,77.0,73.2,29.82,East,90,1.0,4.2,88,0.00,,---,0.00,0.00,VWS V14.01,2013-06-08 07:05:00,
2013-06-08 02:07:00,77.0,72.8,29.82,East,91,3.0,4.2,87,0.00,,---,0.00,0.00,VWS V14.01,2013-06-08 07:07:00,
2013-06-08 02:10:00,77.0,72.8,29.82,East,91,3.0,5.2,87,0.00,,---,0.00,0.00,VWS V14.01,2013-06-08 07:10:00,
2013-06-08 02:12:00,77.0,72.8,29.82,East,91,2.0,4.2,87,0.00,,---,0.00,0.00,VWS V14.01,2013-06-08 07:12:00,
2013-06-08 02:15:00,77.2,73.0,29.81,East,90,0.0,6.2,87,0.00,,---,0.00,0.00,VWS V14.01,2013-06-08 07:15:00,
2013-06-08 02:17:00,77.2,73.0,29.81,East,90,3.0,4.2,87,0.00,,---,0.00,0.00,VWS V14.01,2013-06-08 07:17:00,
2013-06-08 02:20:00,77.2,72.7,29.81,East,88,0.0,5.2,86,0.00,,---,0.00,0.00,VWS V14.01,2013-06-08 07:20:00,
2013-06-08 02:22:00,77.2,72.7,29.81,East,99,4.0,5.2,86,0.00,,---,0.00,0.00,VWS V14.01,2013-06-08 07:22:00,
2013-06-08 02:25:00,77.4,72.9,29.81,East,88,3.0,6.2,86,0.00,,---,0.00,0.00,VWS V14.01,2013-06-08 07:25:00,
2013-06-08 02:27:00,77.4,72.9,29.81,East,82,4.0,5.2,86,0.00,,---,0.00,0.00,VWS V14.01,2013-06-08 07:27:00,
2013-06-08 02:30:00,77.7,73.2,29.81,ENE,76,4.0,6.2,86,0.00,,---,0.00,0.00,VWS V14.01,2013-06-08 07:30:00,
2013-06-08 02:32:00,77.7,72.8,29.81,ENE,76,1.0,5.2,85,0.00,,---,0.00,0.00,VWS V14.01,2013-06-08 07:32:00,
2013-06-08 02:35:00,78.1,73.2,29.81,East,79,2.0,6.2,85,0.00,,---,0.00,0.00,VWS V14.01,2013-06-08 07:35:00,
2013-06-08 02:37:00,78.1,73.2,29.81,East,79,1.0,3.2,85,0.00,,---,0.00,0.00,VWS V14.01,2013-06-08 07:37:00,
2013-06-08 02:40:00,78.3,73.1,29.81,East,79,1.0,5.2,84,0.00,,---,0.00,0.00,VWS V14.01,2013-06-08 07:40:00,
2013-06-08 02:42:00,78.3,73.1,29.81,East,94,2.0,6.2,84,0.00,,---,0.00,0.00,VWS V14.01,2013-06-08 07:42:00,
2013-06-08 02:45:00,78.3,73.1,29.81,East,90,5.0,6.2,84,0.00,,---,0.00,0.00,VWS V14.01,2013-06-08 07:45:00,
2013-06-08 02:47:00,78.1,72.9,29.81,East,88,3.0,6.2,84,0.00,,---,0.00,0.00,VWS V14.01,2013-06-08 07:47:00,
2013-06-08 02:50:00,78.1,72.9,29.81,East,90,2.0,7.2,84,0.00,,---,0.00,0.00,VWS V14.01,2013-06-08 07:50:00,
2013-06-08 02:52:00,77.9,72.7,29.81,East,90,0.0,4.2,84,0.00,,---,0.00,0.00,VWS V14.01,2013-06-08 07:52:00,
2013-06-08 02:55:00,77.9,73.0,29.81,ESE,105,4.0,6.2,85,0.00,,---,0.00,0.00,VWS V14.01,2013-06-08 07:55:00,
2013-06-08 02:57:00,77.9,73.0,29.81,ESE,116,4.0,7.2,85,0.00,,---,0.00,0.00,VWS V14.01,2013-06-08 07:57:00,
2013-06-08 03:00:00,77.9,73.4,29.81,ESE,106,2.0,7.2,86,0.00,,---,0.00,0.00,VWS V14.01,2013-06-08 08:00:00,
2013-06-08 03:02:00,77.9,73.4,29.81,ENE,73,5.0,6.2,86,0.00,,---,0.00,0.00,VWS V14.01,2013-06-08 08:02:00,
2013-06-08 03:05:00,77.9,73.4,29.81,East,98,2.0,7.2,86,0.00,,---,0.00,0.00,VWS V14.01,2013-06-08 08:05:00,
2013-06-08 03:07:00,77.9,73.4,29.81,East,98,3.0,5.2,86,0.00,,---,0.00,0.00,VWS V14.01,2013-06-08 08:07:00,
2013-06-08 03:10:00,77.9,73.7,29.81,East,96,3.0,7.2,87,0.00,,---,0.00,0.00,VWS V14.01,2013-06-08 08:10:00,
2013-06-08 03:12:00,77.9,73.7,29.81,East,96,3.0,5.2,87,0.00,,---,0.00,0.00,VWS V14.01,2013-06-08 08:12:00,
2013-06-08 03:15:00,77.9,73.7,29.81,East,95,3.0,7.2,87,0.00,,---,0.00,0.00,VWS V14.01,2013-06-08 08:15:00,
2013-06-08 03:17:00,77.9,73.7,29.81,East,91,3.0,6.2,87,0.00,,---,0.00,0.00,VWS V14.01,2013-06-08 08:17:00,
2013-06-08 03:20:00,77.9,73.7,29.81,East,90,2.0,6.2,87,0.00,,---,0.00,0.00,VWS V14.01,2013-06-08 08:20:00,
2013-06-08 03:22:00,77.9,73.7,29.81,East,90,0.0,5.2,87,0.00,,---,0.00,0.00,VWS V14.01,2013-06-08 08:22:00,
2013-06-08 03:25:00,77.9,73.7,29.81,East,81,2.0,7.2,87,0.00,,---,0.00,0.00,VWS V14.01,2013-06-08 08:25:00,
2013-06-08 03:27:00,77.9,73.7,29.81,East,81,1.0,3.2,87,0.00,,---,0.00,0.00,VWS V14.01,2013-06-08 08:27:00,
2013-06-08 03:30:00,77.9,73.7,29.81,East,85,4.0,6.2,87,0.00,,---,0.00,0.00,VWS V14.01,2013-06-08 08:30:00,
2013-06-08 03:32:00,77.9,73.7,29.82,East,93,4.0,7.2,87,0.00,,---,0.00,0.00,VWS V14.01,2013-06-08 08:32:00,
2013-06-08 03:35:00,77.9,73.7,29.81,East,94,1.0,7.2,87,0.00,,---,0.00,0.00,VWS V14.01,2013-06-08 08:35:00,
2013-06-08 03:37:00,77.9,73.7,29.82,East,94,2.0,3.2,87,0.00,,---,0.00,0.00,VWS V14.01,2013-06-08 08:37:00,
2013-06-08 03:40:00,77.7,73.5,29.81,East,94,3.0,6.2,87,0.00,,---,0.00,0.00,VWS V14.01,2013-06-08 08:40:00,
2013-06-08 03:42:00,77.7,73.5,29.82,East,94,0.0,4.2,87,0.00,,---,0.00,0.00,VWS V14.01,2013-06-08 08:42:00,
2013-06-08 03:45:00,77.7,73.5,29.82,East,94,1.0,4.2,87,0.00,,---,0.00,0.00,VWS V14.01,2013-06-08 08:45:00,
2013-06-08 03:47:00,77.7,73.5,29.82,East,94,0.0,3.2,87,0.00,,---,0.00,0.00,VWS V14.01,2013-06-08 08:47:00,
2013-06-08 03:50:00,77.7,73.5,29.82,East,94,1.0,4.2,87,0.00,,---,0.00,0.00,VWS V14.01,2013-06-08 08:50:00,
2013-06-08 03:52:00,77.7,73.9,29.82,East,94,0.0,3.2,88,0.00,,---,0.00,0.00,VWS V14.01,2013-06-08 08:52:00,
2013-06-08 03:55:00,77.7,73.9,29.82,East,94,2.0,4.2,88,0.00,,---,0.00,0.00,VWS V14.01,2013-06-08 08:55:00,
2013-06-08 03:57:00,77.7,73.9,29.82,East,94,2.0,3.2,88,0.00,,---,0.00,0.00,VWS V14.01,2013-06-08 08:57:00,
2013-06-08 04:00:00,77.7,73.9,29.81,East,92,2.0,5.2,88,0.00,,---,0.00,0.00,VWS V14.01,2013-06-08 09:00:00,
2013-06-08 04:02:00,77.7,73.9,29.81,East,92,2.0,4.2,88,0.00,,---,0.00,0.00,VWS V14.01,2013-06-08 09:02:00,
2013-06-08 04:05:00,77.9,74.1,29.81,East,92,0.0,6.2,88,0.00,,---,0.00,0.00,VWS V14.01,2013-06-08 09:05:00,
2013-06-08 04:07:00,77.9,74.1,29.81,East,92,1.0,4.2,88,0.00,,---,0.00,0.00,VWS V14.01,2013-06-08 09:07:00,
2013-06-08 04:10:00,78.3,74.5,29.81,East,91,4.0,5.2,88,0.00,,---,0.00,0.00,VWS V14.01,2013-06-08 09:10:00,
2013-06-08 04:12:00,78.3,74.5,29.81,East,91,1.0,5.2,88,0.00,,---,0.00,0.00,VWS V14.01,2013-06-08 09:12:00,
2013-06-08 04:15:00,78.5,74.7,29.80,ENE,67,2.0,7.2,88,0.00,,---,0.00,0.00,VWS V14.01,2013-06-08 09:15:00,
2013-06-08 04:17:00,78.5,74.7,29.80,ENE,69,4.0,5.2,88,0.00,,---,0.00,0.00,VWS V14.01,2013-06-08 09:17:00,
2013-06-08 04:20:00,78.8,74.6,29.80,ENE,71,1.0,6.2,87,0.00,,---,0.00,0.00,VWS V14.01,2013-06-08 09:20:00,
2013-06-08 04:22:00,78.8,74.6,29.80,ENE,71,2.0,6.2,87,0.00,,---,0.00,0.00,VWS V14.01,2013-06-08 09:22:00,
2013-06-08 04:25:00,78.6,74.8,29.80,ENE,71,2.0,6.2,88,0.00,,---,0.00,0.00,VWS V14.01,2013-06-08 09:25:00,
2013-06-08 04:27:00,78.5,74.7,29.80,ENE,71,3.0,4.2,88,0.00,,---,0.00,0.00,VWS V14.01,2013-06-08 09:27:00,
2013-06-08 04:30:00,78.3,74.8,29.80,ENE,77,4.0,6.2,89,0.00,,---,0.00,0.00,VWS V14.01,2013-06-08 09:30:00,
2013-06-08 04:32:00,78.3,74.8,29.80,ENE,77,3.0,5.2,89,0.00,,---,0.00,0.00,VWS V14.01,2013-06-08 09:32:00,
2013-06-08 04:35:00,78.3,75.1,29.80,East,100,3.0,6.2,90,0.00,,---,0.00,0.00,VWS V14.01,2013-06-08 09:35:00,
2013-06-08 04:37:00,78.1,74.9,29.80,East,96,3.0,7.2,90,0.00,,---,0.00,0.00,VWS V14.01,2013-06-08 09:37:00,
2013-06-08 04:40:00,78.3,75.1,29.80,ESE,111,4.0,8.2,90,0.00,,---,0.00,0.00,VWS V14.01,2013-06-08 09:40:00,
2013-06-08 04:42:00,78.3,75.1,29.80,ESE,111,2.0,5.2,90,0.00,,---,0.00,0.00,VWS V14.01,2013-06-08 09:42:00,
2013-06-08 04:45:00,78.3,75.1,29.80,East,100,0.0,7.2,90,0.00,,---,0.00,0.00,VWS V14.01,2013-06-08 09:45:00,
2013-06-08 04:47:00,78.3,75.1,29.80,East,100,2.0,4.2,90,0.00,,---,0.00,0.00,VWS V14.01,2013-06-08 09:47:00,
2013-06-08 04:50:00,78.3,75.1,29.80,East,98,5.0,6.2,90,0.00,,---,0.00,0.00,VWS V14.01,2013-06-08 09:50:00,
2013-06-08 04:52:00,78.3,75.1,29.80,East,98,2.0,6.2,90,0.00,,---,0.00,0.00,VWS V14.01,2013-06-08 09:52:00,
2013-06-08 04:55:00,78.3,75.1,29.80,East,98,1.0,6.2,90,0.00,,---,0.00,0.00,VWS V14.01,2013-06-08 09:55:00,
2013-06-08 04:57:00,78.3,75.1,29.80,East,98,3.0,4.2,90,0.00,,---,0.00,0.00,VWS V14.01,2013-06-08 09:57:00,
2013-06-08 05:00:00,78.3,75.5,29.80,East,98,1.0,5.2,91,0.00,,---,0.00,0.00,VWS V14.01,2013-06-08 10:00:00,
2013-06-08 05:02:00,78.3,75.5,29.80,East,98,3.0,5.2,91,0.00,,---,0.00,0.00,VWS V14.01,2013-06-08 10:02:00,
2013-06-08 05:05:00,78.1,75.3,29.80,East,98,1.0,5.2,91,0.00,,---,0.00,0.00,VWS V14.01,2013-06-08 10:05:00,
2013-06-08 05:07:00,78.1,75.3,29.80,East,96,1.0,4.2,91,0.00,,---,0.00,0.00,VWS V14.01,2013-06-08 10:07:00,
2013-06-08 05:10:00,78.1,75.3,29.80,East,96,2.0,5.2,91,0.00,,---,0.00,0.00,VWS V14.01,2013-06-08 10:10:00,
2013-06-08 05:12:00,78.1,75.3,29.80,East,96,1.0,4.2,91,0.00,,---,0.00,0.00,VWS V14.01,2013-06-08 10:12:00,
2013-06-08 05:15:00,78.3,75.5,29.80,East,96,3.0,5.2,91,0.00,,---,0.00,0.00,VWS V14.01,2013-06-08 10:15:00,
2013-06-08 05:17:00,78.3,75.5,29.80,ESE,105,3.0,7.2,91,0.00,,---,0.00,0.00,VWS V14.01,2013-06-08 10:17:00,
2013-06-08 05:20:00,78.5,75.7,29.80,ESE,105,2.0,7.2,91,0.00,,---,0.00,0.00,VWS V14.01,2013-06-08 10:20:00,
2013-06-08 05:22:00,78.5,75.7,29.80,ESE,105,3.0,4.2,91,0.00,,---,0.00,0.00,VWS V14.01,2013-06-08 10:22:00,
2013-06-08 05:25:00,78.5,75.7,29.80,ESE,105,2.0,5.2,91,0.00,,---,0.00,0.00,VWS V14.01,2013-06-08 10:25:00,
2013-06-08 05:27:00,78.5,75.7,29.80,ESE,105,1.0,3.2,91,0.00,,---,0.00,0.00,VWS V14.01,2013-06-08 10:27:00,
2013-06-08 05:30:00,78.5,75.7,29.80,ESE,105,1.0,5.2,91,0.00,,---,0.00,0.00,VWS V14.01,2013-06-08 10:30:00,
2013-06-08 05:32:00,78.5,75.7,29.80,ESE,105,1.0,2.2,91,0.00,,---,0.00,0.00,VWS V14.01,2013-06-08 10:32:00,
2013-06-08 05:35:00,78.6,75.8,29.80,ESE,105,0.0,3.2,91,0.00,,---,0.00,0.00,VWS V14.01,2013-06-08 10:35:00,
2013-06-08 05:37:00,78.6,75.8,29.80,ESE,105,0.0,2.2,91,0.00,,---,0.00,0.00,VWS V14.01,2013-06-08 10:37:00,
2013-06-08 05:40:00,79.0,75.8,29.80,ESE,105,0.0,4.2,90,0.00,,---,0.00,0.00,VWS V14.01,2013-06-08 10:40:00,
2013-06-08 05:42:00,79.0,75.8,29.80,ESE,105,1.0,2.2,90,0.00,,---,0.00,0.00,VWS V14.01,2013-06-08 10:42:00,
2013-06-08 05:45:00,79.2,76.0,29.80,ESE,105,3.0,5.2,90,0.00,,---,0.00,0.00,VWS V14.01,2013-06-08 10:45:00,
2013-06-08 05:47:00,79.2,76.0,29.80,ESE,105,3.0,4.2,90,0.00,,---,0.00,0.00,VWS V14.01,2013-06-08 10:47:00,
2013-06-08 05:50:00,79.2,75.7,29.80,ESE,105,0.0,5.2,89,0.00,,---,0.00,0.00,VWS V14.01,2013-06-08 10:50:00,
2013-06-08 05:52:00,79.2,75.7,29.80,ESE,105,1.0,4.2,89,0.00,,---,0.00,0.00,VWS V14.01,2013-06-08 10:52:00,
2013-06-08 05:55:00,78.8,75.6,29.80,ESE,104,2.0,5.2,90,0.00,,---,0.00,0.00,VWS V14.01,2013-06-08 10:55:00,
2013-06-08 05:57:00,78.8,75.6,29.80,ESE,104,2.0,4.2,90,0.00,,---,0.00,0.00,VWS V14.01,2013-06-08 10:57:00,
2013-06-08 06:00:00,78.6,75.4,29.79,ESE,104,0.0,5.2,90,0.00,,---,0.00,0.00,VWS V14.01,2013-06-08 11:00:00,
2013-06-08 06:02:00,78.6,75.4,29.79,ESE,104,2.0,4.2,90,0.00,,---,0.00,0.00,VWS V14.01,2013-06-08 11:02:00,
2013-06-08 06:05:00,78.5,75.7,29.79,ESE,104,1.0,4.2,91,0.00,,---,0.00,0.00,VWS V14.01,2013-06-08 11:05:00,
2013-06-08 06:07:00,78.5,75.7,29.79,ESE,104,2.0,5.2,91,0.00,,---,0.00,0.00,VWS V14.01,2013-06-08 11:07:00,
2013-06-08 06:10:00,78.5,75.7,29.79,ESE,103,1.0,6.2,91,0.00,,---,0.00,0.00,VWS V14.01,2013-06-08 11:10:00,
2013-06-08 06:12:00,78.5,75.7,29.79,ESE,103,0.0,2.2,91,0.00,,---,0.00,0.00,VWS V14.01,2013-06-08 11:12:00,
2013-06-08 06:15:00,78.3,75.5,29.80,ESE,103,0.0,3.2,91,0.00,,---,0.00,0.00,VWS V14.01,2013-06-08 11:15:00,
2013-06-08 06:17:00,78.3,75.5,29.80,ESE,103,0.0,3.2,91,0.00,,---,0.00,0.00,VWS V14.01,2013-06-08 11:17:00,
2013-06-08 06:20:00,78.3,75.5,29.80,ESE,103,1.0,4.2,91,0.00,,---,0.00,0.00,VWS V14.01,2013-06-08 11:20:00,
2013-06-08 06:22:00,78.3,75.8,29.80,ESE,103,0.0,2.2,92,0.00,,---,0.00,0.00,VWS V14.01,2013-06-08 11:22:00,
2013-06-08 06:25:00,78.3,75.8,29.80,ESE,103,1.0,3.2,92,0.00,,---,0.00,0.00,VWS V14.01,2013-06-08 11:25:00,
2013-06-08 06:27:00,78.3,75.8,29.80,ESE,103,3.0,4.2,92,0.00,,---,0.00,0.00,VWS V14.01,2013-06-08 11:27:00,
2013-06-08 06:30:00,78.3,75.8,29.80,ESE,103,2.0,5.2,92,0.00,,---,0.00,0.00,VWS V14.01,2013-06-08 11:30:00,
2013-06-08 06:32:00,78.3,75.8,29.80,ESE,103,1.0,3.2,92,0.00,,---,0.00,0.00,VWS V14.01,2013-06-08 11:32:00,
2013-06-08 06:35:00,78.3,75.8,29.80,ESE,103,1.0,4.2,92,0.00,,---,0.00,5.00,VWS V14.01,2013-06-08 11:35:00,
2013-06-08 06:37:00,78.3,75.8,29.80,ESE,103,4.0,5.2,92,0.00,,---,0.00,5.00,VWS V14.01,2013-06-08 11:37:00,
2013-06-08 06:40:00,78.5,76.0,29.80,ESE,103,2.0,5.2,92,0.00,,---,0.00,9.00,VWS V14.01,2013-06-08 11:40:00,
2013-06-08 06:42:00,78.5,76.0,29.80,ESE,103,1.0,3.2,92,0.00,,---,0.00,9.00,VWS V14.01,2013-06-08 11:42:00,
2013-06-08 06:45:00,78.5,76.0,29.81,ESE,103,2.0,4.2,92,0.00,,---,0.00,14.00,VWS V14.01,2013-06-08 11:45:00,
2013-06-08 06:47:00,78.5,76.0,29.81,ESE,103,2.0,3.2,92,0.00,,---,0.00,14.00,VWS V14.01,2013-06-08 11:47:00,
2013-06-08 06:50:00,78.6,76.1,29.81,ESE,103,2.0,5.2,92,0.00,,---,0.00,18.00,VWS V14.01,2013-06-08 11:50:00,
2013-06-08 06:52:00,78.6,76.1,29.81,ESE,103,0.0,3.2,92,0.00,,---,0.00,19.00,VWS V14.01,2013-06-08 11:52:00,
2013-06-08 06:55:00,79.0,76.5,29.81,ESE,103,0.0,4.2,92,0.00,,---,0.00,21.00,VWS V14.01,2013-06-08 11:55:00,
2013-06-08 06:57:00,79.0,76.5,29.81,ESE,103,0.0,2.2,92,0.00,,---,0.00,21.00,VWS V14.01,2013-06-08 11:57:00,
2013-06-08 07:00:00,79.4,76.6,29.81,ESE,103,0.0,4.2,91,0.00,,---,0.00,26.00,VWS V14.01,2013-06-08 12:00:00,
2013-06-08 07:02:00,79.4,76.6,29.81,ESE,103,0.0,1.2,91,0.00,,---,0.00,28.00,VWS V14.01,2013-06-08 12:02:00,
2013-06-08 07:05:00,79.8,76.9,29.81,ESE,103,0.0,4.2,91,0.00,,---,0.00,35.00,VWS V14.01,2013-06-08 12:05:00,
2013-06-08 07:07:00,79.8,76.9,29.81,ESE,103,0.0,2.2,91,0.00,,---,0.00,35.00,VWS V14.01,2013-06-08 12:07:00,
2013-06-08 07:10:00,79.8,76.6,29.81,ESE,103,1.0,3.2,90,0.00,,---,0.00,32.00,VWS V14.01,2013-06-08 12:10:00,
2013-06-08 07:12:00,79.8,76.6,29.81,ESE,103,0.0,2.2,90,0.00,,---,0.00,30.00,VWS V14.01,2013-06-08 12:12:00,
2013-06-08 07:15:00,79.6,76.4,29.81,ESE,103,3.0,4.2,90,0.00,,---,0.00,30.00,VWS V14.01,2013-06-08 12:15:00,
2013-06-08 07:17:00,79.6,76.4,29.81,ESE,103,2.0,4.2,90,0.00,,---,0.00,30.00,VWS V14.01,2013-06-08 12:17:00,
2013-06-08 07:20:00,79.4,76.2,29.81,ESE,103,2.0,5.2,90,0.00,,---,0.00,39.00,VWS V14.01,2013-06-08 12:20:00,
2013-06-08 07:22:00,79.4,76.2,29.81,ESE,103,1.0,3.2,90,0.00,,---,0.00,40.00,VWS V14.01,2013-06-08 12:22:00,
2013-06-08 07:25:00,79.4,76.6,29.81,ESE,103,0.0,5.2,91,0.00,,---,0.00,40.00,VWS V14.01,2013-06-08 12:25:00,
2013-06-08 07:27:00,79.4,76.6,29.81,ESE,103,2.0,3.2,91,0.00,,---,0.00,40.00,VWS V14.01,2013-06-08 12:27:00,
2013-06-08 07:30:00,79.4,76.6,29.81,ESE,103,0.0,5.2,91,0.00,,---,0.00,46.00,VWS V14.01,2013-06-08 12:30:00,
2013-06-08 07:32:00,79.4,76.6,29.81,ESE,103,2.0,3.2,91,0.00,,---,0.00,46.00,VWS V14.01,2013-06-08 12:32:00,
2013-06-08 07:35:00,79.6,76.8,29.81,ESE,103,0.0,4.2,91,0.00,,---,0.00,72.00,VWS V14.01,2013-06-08 12:35:00,
2013-06-08 07:37:00,79.6,76.8,29.81,ESE,103,0.0,1.2,91,0.00,,---,0.00,76.00,VWS V14.01,2013-06-08 12:37:00,
2013-06-08 07:40:00,79.8,76.9,29.81,ESE,102,2.0,4.2,91,0.00,,---,0.00,91.00,VWS V14.01,2013-06-08 12:40:00,
2013-06-08 07:42:00,79.8,76.9,29.81,ESE,102,2.0,5.2,91,0.00,,---,0.00,98.00,VWS V14.01,2013-06-08 12:42:00,
2013-06-08 07:45:00,80.1,76.9,29.82,ESE,103,3.0,5.2,90,0.00,,---,0.00,105.00,VWS V14.01,2013-06-08 12:45:00,
2013-06-08 07:47:00,80.1,76.6,29.82,ESE,103,0.0,4.2,89,0.00,,---,0.00,105.00,VWS V14.01,2013-06-08 12:47:00,
2013-06-08 07:50:00,80.5,76.6,29.82,ESE,102,2.0,5.2,88,0.00,,---,0.00,98.00,VWS V14.01,2013-06-08 12:50:00,
2013-06-08 07:52:00,80.7,76.8,29.82,ESE,103,3.0,5.2,88,0.00,,---,0.00,98.00,VWS V14.01,2013-06-08 12:52:00,
2013-06-08 07:55:00,80.9,77.0,29.82,East,101,4.0,6.2,88,0.00,,---,0.00,105.00,VWS V14.01,2013-06-08 12:55:00,
2013-06-08 07:57:00,80.9,77.0,29.82,East,101,4.0,5.2,88,0.00,,---,0.00,107.00,VWS V14.01,2013-06-08 12:57:00,
2013-06-08 08:00:00,81.1,76.9,29.82,East,99,4.0,6.2,87,0.00,,---,0.00,120.00,VWS V14.01,2013-06-08 13:00:00,
2013-06-08 08:02:00,81.1,76.9,29.82,East,89,4.0,6.2,87,0.00,,---,0.00,123.00,VWS V14.01,2013-06-08 13:02:00,
2013-06-08 08:05:00,81.6,77.4,29.82,East,92,1.0,7.2,87,0.00,,---,0.00,144.00,VWS V14.01,2013-06-08 13:05:00,
2013-06-08 08:07:00,81.6,78.1,29.82,East,92,0.0,5.2,89,0.00,,---,0.00,144.00,VWS V14.01,2013-06-08 13:07:00,
2013-06-08 08:10:00,82.0,77.1,29.82,ESE,108,5.0,10.2,85,0.00,,---,0.00,116.00,VWS V14.01,2013-06-08 13:10:00,
2013-06-08 08:12:00,82.0,77.1,29.82,ESE,107,5.0,6.2,85,0.00,,---,0.00,116.00,VWS V14.01,2013-06-08 13:12:00,
2013-06-08 08:15:00,82.2,76.9,29.82,East,83,3.0,10.2,84,0.00,,---,0.00,93.00,VWS V14.01,2013-06-08 13:15:00,
2013-06-08 08:17:00,82.2,76.9,29.82,East,83,1.0,5.2,84,0.00,,---,0.00,95.00,VWS V14.01,2013-06-08 13:17:00,
2013-06-08 08:20:00,82.2,76.9,29.82,East,97,4.0,8.2,84,0.00,,---,0.00,95.00,VWS V14.01,2013-06-08 13:20:00,
2013-06-08 08:22:00,82.2,76.9,29.82,East,97,2.0,5.2,84,0.00,,---,0.00,95.00,VWS V14.01,2013-06-08 13:22:00,
2013-06-08 08:25:00,82.0,76.7,29.82,ESE,107,2.0,8.2,84,0.00,,---,0.00,118.00,VWS V14.01,2013-06-08 13:25:00,
2013-06-08 08:27:00,82.0,76.7,29.82,East,101,6.0,7.2,84,0.00,,---,0.00,125.00,VWS V14.01,2013-06-08 13:27:00,
2013-06-08 08:30:00,81.6,76.3,29.82,ESE,123,7.0,10.2,84,0.00,,---,0.00,139.00,VWS V14.01,2013-06-08 13:30:00,
2013-06-08 08:32:00,81.6,76.3,29.82,ESE,123,2.0,8.2,84,0.00,,---,0.00,135.00,VWS V14.01,2013-06-08 13:32:00,
2013-06-08 08:35:00,81.6,76.7,29.82,ESE,103,2.0,8.2,85,0.00,,---,0.00,120.00,VWS V14.01,2013-06-08 13:35:00,
2013-06-08 08:37:00,81.6,76.7,29.82,ESE,103,4.0,6.2,85,0.00,,---,0.00,120.00,VWS V14.01,2013-06-08 13:37:00,
2013-06-08 08:40:00,81.6,77.0,29.82,SSE,165,6.0,11.2,86,0.00,,---,0.00,62.00,VWS V14.01,2013-06-08 13:40:00,
2013-06-08 08:42:00,81.4,76.5,29.82,SSE,153,8.0,13.2,85,0.00,,---,0.00,69.00,VWS V14.01,2013-06-08 13:42:00,
2013-06-08 08:45:00,81.1,75.8,29.82,SSE,157,4.0,13.2,84,0.00,,---,0.00,76.00,VWS V14.01,2013-06-08 13:45:00,
2013-06-08 08:47:00,80.9,75.6,29.82,SSE,157,4.0,8.2,84,0.00,,---,0.00,79.00,VWS V14.01,2013-06-08 13:47:00,
2013-06-08 08:50:00,80.5,75.2,29.82,SSE,148,2.0,10.2,84,0.00,,---,0.00,88.00,VWS V14.01,2013-06-08 13:50:00,
2013-06-08 08:52:00,80.5,75.2,29.82,SSE,147,5.0,8.2,84,0.00,,---,0.00,88.00,VWS V14.01,2013-06-08 13:52:00,
2013-06-08 08:55:00,80.3,74.7,29.82,SSE,162,7.0,13.2,83,0.00,,---,0.00,111.00,VWS V14.01,2013-06-08 13:55:00,
2013-06-08 08:57:00,80.1,74.1,29.82,SSE,168,7.0,12.2,82,0.00,,---,0.00,114.00,VWS V14.01,2013-06-08 13:57:00,
2013-06-08 09:00:00,79.8,73.1,29.82,SSE,163,3.0,15.2,80,0.00,,---,0.00,137.00,VWS V14.01,2013-06-08 14:00:00,
2013-06-08 09:02:00,79.8,73.1,29.82,SE,126,3.0,6.2,80,0.00,,---,0.00,137.00,VWS V14.01,2013-06-08 14:02:00,
2013-06-08 09:05:00,79.8,72.7,29.82,ESE,123,4.0,13.2,79,0.00,,---,0.00,141.00,VWS V14.01,2013-06-08 14:05:00,
2013-06-08 09:07:00,79.8,72.7,29.82,SE,128,6.0,7.2,79,0.00,,---,0.00,137.00,VWS V14.01,2013-06-08 14:07:00,
2013-06-08 09:10:00,80.1,73.8,29.82,SE,145,5.0,11.2,81,0.00,,---,0.00,127.00,VWS V14.01,2013-06-08 14:10:00,
2013-06-08 09:12:00,80.1,73.8,29.82,South,173,3.0,12.2,81,0.00,,---,0.00,130.00,VWS V14.01,2013-06-08 14:12:00,
2013-06-08 09:15:00,80.7,74.7,29.82,SSE,152,10.0,14.2,82,0.00,,---,0.00,163.00,VWS V14.01,2013-06-08 14:15:00,
2013-06-08 09:17:00,80.7,74.0,29.82,SSE,148,5.0,13.2,80,0.00,,---,0.00,163.00,VWS V14.01,2013-06-08 14:17:00,
2013-06-08 09:20:00,81.4,75.4,29.82,SE,146,6.0,15.2,82,0.00,,---,0.00,206.00,VWS V14.01,2013-06-08 14:20:00,
2013-06-08 09:22:00,81.6,75.6,29.82,SE,135,4.0,10.2,82,0.00,,---,0.00,213.00,VWS V14.01,2013-06-08 14:22:00,
2013-06-08 09:25:00,82.0,76.0,29.82,South,175,5.0,13.2,82,0.00,,---,0.00,262.00,VWS V14.01,2013-06-08 14:25:00,
2013-06-08 09:27:00,82.2,75.8,29.82,SSE,151,2.0,10.2,81,0.00,,---,0.00,278.00,VWS V14.01,2013-06-08 14:27:00,
2013-06-08 09:30:00,82.8,76.4,29.83,West,278,1.0,15.2,81,0.00,,---,0.00,366.00,VWS V14.01,2013-06-08 14:30:00,
2013-06-08 09:32:00,83.0,76.6,29.83,SE,133,8.0,11.2,81,0.00,,---,0.00,381.00,VWS V14.01,2013-06-08 14:32:00,
2013-06-08 09:35:00,83.0,76.2,29.83,SE,137,8.0,15.2,80,0.00,,---,0.00,513.00,VWS V14.01,2013-06-08 14:35:00,
2013-06-08 09:37:00,83.0,76.2,29.83,South,179,5.0,12.2,80,0.00,,---,0.00,434.00,VWS V14.01,2013-06-08 14:37:00,
2013-06-08 09:40:00,82.8,76.4,29.83,SE,134,5.0,13.2,81,0.00,,---,0.00,134.00,VWS V14.01,2013-06-08 14:40:00,
2013-06-08 09:42:00,82.6,76.2,29.83,SSE,161,6.0,8.2,81,0.00,,---,0.00,107.00,VWS V14.01,2013-06-08 14:42:00,
2013-06-08 09:45:00,82.0,76.0,29.84,SSE,168,6.0,15.2,82,0.00,,---,0.00,137.00,VWS V14.01,2013-06-08 14:45:00,
2013-06-08 09:47:00,81.8,75.4,29.84,SSE,159,4.0,12.2,81,0.00,,---,0.00,190.00,VWS V14.01,2013-06-08 14:47:00,
2013-06-08 09:50:00,81.8,75.8,29.84,SSW,207,7.0,15.2,82,0.00,,---,0.00,508.00,VWS V14.01,2013-06-08 14:50:00,
2013-06-08 09:52:00,81.8,75.8,29.84,SW,219,6.0,15.2,82,0.00,,---,0.00,508.00,VWS V14.01,2013-06-08 14:52:00,
2013-06-08 09:55:00,82.2,75.0,29.84,South,176,5.0,18.2,79,0.00,,---,0.00,670.00,VWS V14.01,2013-06-08 14:55:00,
2013-06-08 09:57:00,82.2,75.0,29.84,SSW,207,8.0,10.2,79,0.00,,---,0.00,670.00,VWS V14.01,2013-06-08 14:57:00,
2013-06-08 10:00:00,81.4,73.9,29.84,SW,225,14.0,16.2,78,0.00,,---,0.00,800.00,VWS V14.01,2013-06-08 15:00:00,
2013-06-08 10:02:00,81.2,73.7,29.84,SSW,203,11.0,19.2,78,0.00,,---,0.00,541.00,VWS V14.01,2013-06-08 15:02:00,
2013-06-08 10:05:00,80.9,73.4,29.84,SW,219,8.0,19.2,78,0.00,,---,0.00,508.00,VWS V14.01,2013-06-08 15:05:00,
2013-06-08 10:07:00,80.9,73.8,29.84,SW,222,5.0,9.2,79,0.00,,---,0.00,315.00,VWS V14.01,2013-06-08 15:07:00,
2013-06-08 10:10:00,81.1,72.8,29.84,SW,223,6.0,14.2,76,0.00,,---,0.00,306.00,VWS V14.01,2013-06-08 15:10:00,
2013-06-08 10:12:00,81.1,72.8,29.84,South,188,5.0,7.2,76,0.00,,---,0.00,399.00,VWS V14.01,2013-06-08 15:12:00,
2013-06-08 10:15:00,81.1,71.6,29.84,SW,219,9.0,14.2,73,0.00,,---,0.00,698.00,VWS V14.01,2013-06-08 15:15:00,
2013-06-08 10:17:00,81.2,71.7,29.84,SW,223,5.0,12.2,73,0.00,,---,0.00,687.00,VWS V14.01,2013-06-08 15:17:00,
2013-06-08 10:20:00,81.6,71.3,29.84,SSW,207,5.0,14.2,71,0.00,,---,0.00,592.00,VWS V14.01,2013-06-08 15:20:00,
2013-06-08 10:22:00,81.6,71.3,29.84,SW,220,7.0,11.2,71,0.00,,---,0.00,592.00,VWS V14.01,2013-06-08 15:22:00,
2013-06-08 10:25:00,81.6,70.9,29.84,South,187,3.0,12.2,70,0.00,,---,0.00,700.00,VWS V14.01,2013-06-08 15:25:00,
2013-06-08 10:27:00,81.6,70.9,29.84,SSW,195,4.0,6.2,70,0.00,,---,0.00,700.00,VWS V14.01,2013-06-08 15:27:00,
2013-06-08 10:30:00,82.0,71.3,29.84,SSW,211,7.0,13.2,70,0.00,,---,0.00,738.00,VWS V14.01,2013-06-08 15:30:00,
2013-06-08 10:32:00,82.0,71.3,29.84,SSW,213,10.0,11.2,70,0.00,,---,0.00,410.00,VWS V14.01,2013-06-08 15:32:00,
2013-06-08 10:35:00,81.1,70.4,29.84,SW,218,12.0,15.2,70,0.00,,---,0.00,540.00,VWS V14.01,2013-06-08 15:35:00,
2013-06-08 10:37:00,80.9,70.2,29.84,South,191,2.0,13.2,70,0.00,,---,0.00,705.00,VWS V14.01,2013-06-08 15:37:00,
2013-06-08 10:40:00,80.9,71.4,29.84,SSW,213,5.0,13.2,73,0.00,,---,0.00,536.00,VWS V14.01,2013-06-08 15:40:00,
2013-06-08 10:42:00,80.9,71.4,29.84,South,178,4.0,8.2,73,0.00,,---,0.00,478.00,VWS V14.01,2013-06-08 15:42:00,
2013-06-08 10:45:00,80.1,71.1,29.84,SSW,197,8.0,13.2,74,0.00,,---,0.00,608.00,VWS V14.01,2013-06-08 15:45:00,
2013-06-08 10:47:00,80.1,71.1,29.84,SSW,211,12.0,13.2,74,0.00,,---,0.00,608.00,VWS V14.01,2013-06-08 15:47:00,
2013-06-08 10:50:00,79.8,71.2,29.84,SW,215,9.0,14.2,75,0.00,,---,0.00,357.00,VWS V14.01,2013-06-08 15:50:00,
2013-06-08 10:52:00,79.6,71.0,29.84,SW,234,6.0,11.2,75,0.00,,---,0.00,371.00,VWS V14.01,2013-06-08 15:52:00,
2013-06-08 10:55:00,79.6,71.4,29.84,SW,219,5.0,11.2,76,0.00,,---,0.00,352.00,VWS V14.01,2013-06-08 15:55:00,
2013-06-08 10:57:00,79.6,71.0,29.84,SSW,209,8.0,9.2,75,0.00,,---,0.00,320.00,VWS V14.01,2013-06-08 15:57:00,
2013-06-08 11:00:00,79.6,71.0,29.83,SSW,200,3.0,12.2,75,0.00,,---,0.00,306.00,VWS V14.01,2013-06-08 16:00:00,
2013-06-08 11:02:00,79.6,71.0,29.83,SW,219,7.0,10.2,75,0.00,,---,0.00,306.00,VWS V14.01,2013-06-08 16:02:00,
2013-06-08 11:05:00,79.6,71.4,29.83,SSW,213,4.0,10.2,76,0.00,,---,0.00,313.00,VWS V14.01,2013-06-08 16:05:00,
2013-06-08 11:07:00,79.6,71.4,29.83,SW,215,5.0,7.2,76,0.00,,---,0.00,316.00,VWS V14.01,2013-06-08 16:07:00,
2013-06-08 11:10:00,79.8,71.9,29.83,SSW,203,8.0,10.2,77,0.00,,---,0.00,471.00,VWS V14.01,2013-06-08 16:10:00,
2013-06-08 11:12:00,79.8,71.9,29.83,SSW,201,3.0,9.2,77,0.00,,---,0.00,483.00,VWS V14.01,2013-06-08 16:12:00,
2013-06-08 11:15:00,79.9,72.1,29.82,SSW,211,1.0,9.2,77,0.00,,---,0.00,513.00,VWS V14.01,2013-06-08 16:15:00,
2013-06-08 11:17:00,80.1,72.2,29.82,SSW,211,0.0,2.2,77,0.00,,---,0.00,789.00,VWS V14.01,2013-06-08 16:17:00,
2013-06-08 11:20:00,80.9,72.6,29.82,South,186,0.0,5.2,76,0.00,,---,0.00,439.00,VWS V14.01,2013-06-08 16:20:00,
2013-06-08 11:22:00,81.1,72.8,29.82,South,186,3.0,4.2,76,0.00,,---,0.00,478.00,VWS V14.01,2013-06-08 16:22:00,
2013-06-08 11:25:00,81.4,72.7,29.82,South,187,2.0,5.2,75,0.00,,---,0.00,684.00,VWS V14.01,2013-06-08 16:25:00,
2013-06-08 11:27:00,81.6,72.5,29.82,South,187,3.0,5.2,74,0.00,,---,0.00,684.00,VWS V14.01,2013-06-08 16:27:00,
2013-06-08 11:30:00,82.4,73.3,29.82,SSW,200,2.0,8.2,74,0.00,,---,0.00,768.00,VWS V14.01,2013-06-08 16:30:00,
2013-06-08 11:32:00,82.6,73.5,29.82,SSW,210,5.0,6.2,74,0.00,,---,0.00,768.00,VWS V14.01,2013-06-08 16:32:00,
2013-06-08 11:35:00,83.0,72.6,29.82,SSW,192,1.0,8.2,71,0.00,,---,0.00,606.00,VWS V14.01,2013-06-08 16:35:00,
2013-06-08 11:37:00,83.0,72.6,29.82,South,179,4.0,5.2,71,0.00,,---,0.00,606.00,VWS V14.01,2013-06-08 16:37:00,
2013-06-08 11:40:00,83.4,73.4,29.82,South,175,2.0,5.2,72,0.00,,---,0.00,519.00,VWS V14.01,2013-06-08 16:40:00,
2013-06-08 11:42:00,83.4,73.4,29.82,South,175,3.0,4.2,72,0.00,,---,0.00,478.00,VWS V14.01,2013-06-08 16:42:00,
2013-06-08 11:45:00,83.8,74.2,29.82,South,183,2.0,5.2,73,0.00,,---,0.00,476.00,VWS V14.01,2013-06-08 16:45:00,
2013-06-08 11:47:00,83.8,74.2,29.82,South,183,0.0,3.2,73,0.00,,---,0.00,468.00,VWS V14.01,2013-06-08 16:47:00,
2013-06-08 11:50:00,84.0,74.0,29.82,SSW,211,4.0,8.2,72,0.00,,---,0.00,355.00,VWS V14.01,2013-06-08 16:50:00,
2013-06-08 11:52:00,84.0,74.4,29.82,SW,214,4.0,8.2,73,0.00,,---,0.00,341.00,VWS V14.01,2013-06-08 16:52:00,
2013-06-08 11:55:00,83.6,74.4,29.82,SSW,205,5.0,9.2,74,0.00,,---,0.00,441.00,VWS V14.01,2013-06-08 16:55:00,
2013-06-08 11:57:00,83.6,74.4,29.82,SSW,195,2.0,6.2,74,0.00,,---,0.00,441.00,VWS V14.01,2013-06-08 16:57:00,
2013-06-08 12:00:00,84.3,75.5,29.82,SSE,154,3.0,10.2,75,0.00,,---,0.00,352.00,VWS V14.01,2013-06-08 17:00:00,
2013-06-08 12:02:00,84.3,75.1,29.82,SSE,157,3.0,5.2,74,0.00,,---,0.00,380.00,VWS V14.01,2013-06-08 17:02:00,
2013-06-08 12:05:00,84.7,75.5,29.82,SSE,153,4.0,8.2,74,0.00,,---,0.00,431.00,VWS V14.01,2013-06-08 17:05:00,
2013-06-08 12:07:00,84.7,75.5,29.82,SE,143,4.0,8.2,74,0.00,,---,0.00,443.00,VWS V14.01,2013-06-08 17:07:00,
2013-06-08 12:10:00,84.7,75.9,29.82,SSW,201,5.0,12.2,75,0.00,,---,0.00,599.00,VWS V14.01,2013-06-08 17:10:00,
2013-06-08 12:12:00,84.5,75.7,29.82,SSW,192,2.0,11.2,75,0.00,,---,0.00,599.00,VWS V14.01,2013-06-08 17:12:00,
2013-06-08 12:15:00,84.7,75.9,29.82,SW,221,5.0,11.2,75,0.00,,---,0.00,745.00,VWS V14.01,2013-06-08 17:15:00,
2013-06-08 12:17:00,84.7,75.9,29.82,SW,219,4.0,6.2,75,0.00,,---,0.00,738.00,VWS V14.01,2013-06-08 17:17:00,
2013-06-08 12:20:00,84.9,76.1,29.82,ESE,121,6.0,11.2,75,0.00,,---,0.00,475.00,VWS V14.01,2013-06-08 17:20:00,
2013-06-08 12:22:00,84.9,75.7,29.82,SE,126,1.0,7.2,74,0.00,,---,0.00,427.00,VWS V14.01,2013-06-08 17:22:00,
2013-06-08 12:25:00,84.7,75.5,29.82,SE,136,4.0,9.2,74,0.00,,---,0.00,522.00,VWS V14.01,2013-06-08 17:25:00,
2013-06-08 12:27:00,84.7,75.5,29.82,SE,132,6.0,8.2,74,0.00,,---,0.00,522.00,VWS V14.01,2013-06-08 17:27:00,
2013-06-08 12:30:00,84.7,75.5,29.82,ESE,123,6.0,11.2,74,0.00,,---,0.00,591.00,VWS V14.01,2013-06-08 17:30:00,
2013-06-08 12:32:00,84.7,75.5,29.82,ESE,108,6.0,7.2,74,0.00,,---,0.00,591.00,VWS V14.01,2013-06-08 17:32:00,
2013-06-08 12:35:00,84.5,75.3,29.82,ESE,120,5.0,8.2,74,0.00,,---,0.00,592.00,VWS V14.01,2013-06-08 17:35:00,
2013-06-08 12:37:00,84.7,75.5,29.82,ESE,120,6.0,7.2,74,0.00,,---,0.00,645.00,VWS V14.01,2013-06-08 17:37:00,
2013-06-08 12:40:00,85.3,76.1,29.82,ESE,115,3.0,9.2,74,0.00,,---,0.00,861.00,VWS V14.01,2013-06-08 17:40:00,
2013-06-08 12:42:00,85.5,76.3,29.82,ESE,109,3.0,8.2,74,0.00,,---,0.00,879.00,VWS V14.01,2013-06-08 17:42:00,
2013-06-08 12:45:00,85.3,75.7,29.82,SE,124,5.0,9.2,73,0.00,,---,0.00,680.00,VWS V14.01,2013-06-08 17:45:00,
2013-06-08 12:47:00,85.3,75.7,29.82,ESE,123,5.0,6.2,73,0.00,,---,0.00,680.00,VWS V14.01,2013-06-08 17:47:00,
2013-06-08 12:50:00,85.5,76.3,29.82,ESE,122,6.0,8.2,74,0.00,,---,0.00,907.00,VWS V14.01,2013-06-08 17:50:00,
2013-06-08 12:52:00,85.7,76.5,29.82,ESE,123,3.0,7.2,74,0.00,,---,0.00,986.00,VWS V14.01,2013-06-08 17:52:00,
2013-06-08 12:55:00,86.3,76.6,29.82,SE,129,4.0,8.2,73,0.00,,---,0.00,577.00,VWS V14.01,2013-06-08 17:55:00,
2013-06-08 12:57:00,86.5,76.8,29.82,ESE,116,5.0,7.2,73,0.00,,---,0.00,1039.00,VWS V14.01,2013-06-08 17:57:00,
2013-06-08 13:00:00,87.0,77.3,29.81,SE,143,4.0,10.2,73,0.00,,---,0.00,1120.00,VWS V14.01,2013-06-08 18:00:00,
2013-06-08 13:02:00,87.0,76.9,29.81,SSE,148,7.0,11.2,72,0.00,,---,0.00,1120.00,VWS V14.01,2013-06-08 18:02:00,
2013-06-08 13:05:00,86.5,76.8,29.81,SE,130,4.0,11.2,73,0.00,,---,0.00,814.00,VWS V14.01,2013-06-08 18:05:00,
2013-06-08 13:07:00,86.7,77.0,29.81,ESE,117,6.0,8.2,73,0.00,,---,0.00,758.00,VWS V14.01,2013-06-08 18:07:00,
2013-06-08 13:10:00,86.5,76.4,29.81,SE,132,3.0,11.2,72,0.00,,---,0.00,847.00,VWS V14.01,2013-06-08 18:10:00,
2013-06-08 13:12:00,86.5,76.4,29.81,SE,126,3.0,5.2,72,0.00,,---,0.00,387.00,VWS V14.01,2013-06-08 18:12:00,
2013-06-08 13:15:00,86.3,77.0,29.80,ESE,103,4.0,11.2,74,0.00,,---,0.00,984.00,VWS V14.01,2013-06-08 18:15:00,
2013-06-08 13:17:00,86.3,77.0,29.80,East,96,4.0,8.2,74,0.00,,---,0.00,984.00,VWS V14.01,2013-06-08 18:17:00,
2013-06-08 13:20:00,87.6,77.5,29.80,ESE,107,4.0,12.2,72,0.00,,---,0.00,842.00,VWS V14.01,2013-06-08 18:20:00,
2013-06-08 13:22:00,87.6,77.0,29.80,ESE,107,2.0,5.2,71,0.00,,---,0.00,842.00,VWS V14.01,2013-06-08 18:22:00,
2013-06-08 13:25:00,87.2,77.1,29.80,SE,130,7.0,12.2,72,0.00,,---,0.00,988.00,VWS V14.01,2013-06-08 18:25:00,
2013-06-08 13:27:00,87.0,76.9,29.80,East,96,4.0,10.2,72,0.00,,---,0.00,1157.00,VWS V14.01,2013-06-08 18:27:00,
2013-06-08 13:30:00,87.8,77.7,29.80,SE,144,4.0,11.2,72,0.00,,---,0.00,1118.00,VWS V14.01,2013-06-08 18:30:00,
2013-06-08 13:32:00,88.0,77.8,29.80,ESE,105,8.0,9.2,72,0.00,,---,0.00,645.00,VWS V14.01,2013-06-08 18:32:00,
2013-06-08 13:35:00,88.0,77.0,29.80,South,190,4.0,12.2,70,0.00,,---,0.00,638.00,VWS V14.01,2013-06-08 18:35:00,
2013-06-08 13:37:00,87.8,76.8,29.80,ESE,116,5.0,6.2,70,0.00,,---,0.00,638.00,VWS V14.01,2013-06-08 18:37:00,
2013-06-08 13:40:00,87.6,77.0,29.80,South,170,4.0,12.2,71,0.00,,---,0.00,995.00,VWS V14.01,2013-06-08 18:40:00,
2013-06-08 13:42:00,87.6,77.0,29.80,ESE,107,10.0,11.2,71,0.00,,---,0.00,995.00,VWS V14.01,2013-06-08 18:42:00,
2013-06-08 13:45:00,87.8,77.7,29.80,ESE,103,3.0,13.2,72,0.00,,---,0.00,909.00,VWS V14.01,2013-06-08 18:45:00,
2013-06-08 13:47:00,87.8,77.2,29.80,ESE,105,3.0,7.2,71,0.00,,---,0.00,587.00,VWS V14.01,2013-06-08 18:47:00,
2013-06-08 13:50:00,87.8,76.8,29.80,SSE,152,5.0,12.2,70,0.00,,---,0.00,378.00,VWS V14.01,2013-06-08 18:50:00,
2013-06-08 13:52:00,87.6,76.6,29.80,SE,142,10.0,11.2,70,0.00,,---,0.00,608.00,VWS V14.01,2013-06-08 18:52:00,
2013-06-08 13:55:00,87.0,76.5,29.80,South,172,1.0,13.2,71,0.00,,---,0.00,812.00,VWS V14.01,2013-06-08 18:55:00,
2013-06-08 13:57:00,87.0,76.9,29.80,SE,128,10.0,11.2,72,0.00,,---,0.00,812.00,VWS V14.01,2013-06-08 18:57:00,
2013-06-08 14:00:00,87.0,76.0,29.79,SE,144,3.0,13.2,70,0.00,,---,0.00,707.00,VWS V14.01,2013-06-08 19:00:00,
2013-06-08 14:02:00,87.0,76.0,29.79,SE,138,3.0,6.2,70,0.00,,---,0.00,884.00,VWS V14.01,2013-06-08 19:02:00,
2013-06-08 14:05:00,87.2,77.1,29.79,SE,134,8.0,13.2,72,0.00,,---,0.00,1102.00,VWS V14.01,2013-06-08 19:05:00,
2013-06-08 14:07:00,87.2,77.5,29.79,ESE,117,5.0,9.2,73,0.00,,---,0.00,1100.00,VWS V14.01,2013-06-08 19:07:00,
2013-06-08 14:10:00,87.6,77.9,29.79,East,80,5.0,11.2,73,0.00,,---,0.00,1085.00,VWS V14.01,2013-06-08 19:10:00,
2013-06-08 14:12:00,87.8,77.7,29.79,ESE,102,5.0,7.2,72,0.00,,---,0.00,1060.00,VWS V14.01,2013-06-08 19:12:00,
2013-06-08 14:15:00,88.2,77.6,29.79,SE,140,10.0,13.2,71,0.00,,---,0.00,1028.00,VWS V14.01,2013-06-08 19:15:00,
2013-06-08 14:17:00,88.2,77.6,29.79,East,92,7.0,11.2,71,0.00,,---,0.00,990.00,VWS V14.01,2013-06-08 19:17:00,
2013-06-08 14:20:00,87.6,77.5,29.79,SSE,150,9.0,12.2,72,0.00,,---,0.00,1009.00,VWS V14.01,2013-06-08 19:20:00,
2013-06-08 14:22:00,87.4,77.3,29.79,SE,135,7.0,10.2,72,0.00,,---,0.00,1014.00,VWS V14.01,2013-06-08 19:22:00,
2013-06-08 14:25:00,87.6,78.3,29.79,SE,130,9.0,13.2,74,0.00,,---,0.00,1005.00,VWS V14.01,2013-06-08 19:25:00,
2013-06-08 14:27:00,87.6,78.3,29.79,SE,126,3.0,10.2,74,0.00,,---,0.00,1000.00,VWS V14.01,2013-06-08 19:27:00,
2013-06-08 14:30:00,88.2,77.2,29.78,SE,132,8.0,14.2,70,0.00,,---,0.00,990.00,VWS V14.01,2013-06-08 19:30:00,
2013-06-08 14:32:00,88.2,77.6,29.78,SE,142,9.0,11.2,71,0.00,,---,0.00,990.00,VWS V14.01,2013-06-08 19:32:00,
2013-06-08 14:35:00,88.0,77.0,29.78,SE,141,5.0,13.2,70,0.00,,---,0.00,981.00,VWS V14.01,2013-06-08 19:35:00,
2013-06-08 14:37:00,88.0,77.0,29.78,South,176,6.0,10.2,70,0.00,,---,0.00,976.00,VWS V14.01,2013-06-08 19:37:00,
2013-06-08 14:40:00,88.2,77.2,29.78,ESE,109,5.0,14.2,70,0.00,,---,0.00,970.00,VWS V14.01,2013-06-08 19:40:00,
2013-06-08 14:42:00,88.4,77.4,29.78,SE,134,11.0,14.2,70,0.00,,---,0.00,972.00,VWS V14.01,2013-06-08 19:42:00,
2013-06-08 14:45:00,88.6,76.2,29.77,SE,142,12.0,17.2,67,0.00,,---,0.00,965.00,VWS V14.01,2013-06-08 19:45:00,
2013-06-08 14:47:00,88.4,76.1,29.77,SE,129,6.0,13.2,67,0.00,,---,0.00,963.00,VWS V14.01,2013-06-08 19:47:00,
2013-06-08 14:50:00,88.2,76.3,29.77,ESE,123,10.0,15.2,68,0.00,,---,0.00,958.00,VWS V14.01,2013-06-08 19:50:00,
2013-06-08 14:52:00,88.2,75.9,29.77,SE,133,3.0,14.2,67,0.00,,---,0.00,958.00,VWS V14.01,2013-06-08 19:52:00,
2013-06-08 14:55:00,88.6,76.2,29.77,South,170,6.0,14.2,67,0.00,,---,0.00,949.00,VWS V14.01,2013-06-08 19:55:00,
2013-06-08 14:57:00,88.8,76.4,29.77,SE,130,5.0,13.2,67,0.00,,---,0.00,947.00,VWS V14.01,2013-06-08 19:57:00,
2013-06-08 15:00:00,89.0,76.6,29.77,SE,124,7.0,14.2,67,0.00,,---,0.00,944.00,VWS V14.01,2013-06-08 20:00:00,
2013-06-08 15:02:00,89.0,76.6,29.77,SE,139,13.0,14.2,67,0.00,,---,0.00,940.00,VWS V14.01,2013-06-08 20:02:00,
2013-06-08 15:05:00,89.3,77.8,29.77,ESE,112,6.0,14.2,69,0.00,,---,0.00,933.00,VWS V14.01,2013-06-08 20:05:00,
2013-06-08 15:07:00,89.3,77.4,29.77,ESE,104,11.0,14.2,68,0.00,,---,0.00,930.00,VWS V14.01,2013-06-08 20:07:00,
2013-06-08 15:10:00,88.6,76.7,29.77,ESE,117,10.0,14.2,68,0.00,,---,0.00,926.00,VWS V14.01,2013-06-08 20:10:00,
2013-06-08 15:12:00,88.6,76.7,29.77,East,90,11.0,12.2,68,0.00,,---,0.00,923.00,VWS V14.01,2013-06-08 20:12:00,
2013-06-08 15:15:00,88.2,76.3,29.77,ESE,102,5.0,14.2,68,0.00,,---,0.00,914.00,VWS V14.01,2013-06-08 20:15:00,
2013-06-08 15:17:00,88.2,76.8,29.77,ESE,105,9.0,14.2,69,0.00,,---,0.00,914.00,VWS V14.01,2013-06-08 20:17:00,
2013-06-08 15:20:00,87.6,76.6,29.77,ESE,106,8.0,14.2,70,0.00,,---,0.00,905.00,VWS V14.01,2013-06-08 20:20:00,
2013-06-08 15:22:00,87.8,76.8,29.77,ESE,119,6.0,14.2,70,0.00,,---,0.00,904.00,VWS V14.01,2013-06-08 20:22:00,
2013-06-08 15:25:00,88.2,76.3,29.77,East,86,7.0,14.2,68,0.00,,---,0.00,898.00,VWS V14.01,2013-06-08 20:25:00,
2013-06-08 15:27:00,88.2,76.3,29.77,East,94,2.0,12.2,68,0.00,,---,0.00,895.00,VWS V14.01,2013-06-08 20:27:00,
2013-06-08 15:30:00,89.3,77.4,29.76,ESE,104,12.0,14.2,68,0.00,,---,0.00,886.00,VWS V14.01,2013-06-08 20:30:00,
2013-06-08 15:32:00,89.3,76.9,29.76,ESE,108,11.0,16.2,67,0.00,,---,0.00,882.00,VWS V14.01,2013-06-08 20:32:00,
2013-06-08 15:35:00,89.0,77.5,29.76,ESE,123,6.0,16.2,69,0.00,,---,0.00,877.00,VWS V14.01,2013-06-08 20:35:00,
2013-06-08 15:37:00,89.3,77.4,29.76,ESE,105,9.0,12.2,68,0.00,,---,0.00,875.00,VWS V14.01,2013-06-08 20:37:00,
2013-06-08 15:40:00,89.5,77.1,29.76,East,101,9.0,14.2,67,0.00,,---,0.00,886.00,VWS V14.01,2013-06-08 20:40:00,
2013-06-08 15:42:00,89.5,77.1,29.76,ESE,117,11.0,12.2,67,0.00,,---,0.00,904.00,VWS V14.01,2013-06-08 20:42:00,
2013-06-08 15:45:00,88.8,76.9,29.76,ESE,116,7.0,14.2,68,0.00,,---,0.00,420.00,VWS V14.01,2013-06-08 20:45:00,
2013-06-08 15:47:00,88.6,76.7,29.76,ESE,113,10.0,11.2,68,0.00,,---,0.00,420.00,VWS V14.01,2013-06-08 20:47:00,
2013-06-08 15:50:00,88.0,76.6,29.76,ESE,117,6.0,15.2,69,0.00,,---,0.00,269.00,VWS V14.01,2013-06-08 20:50:00,
2013-06-08 15:52:00,87.8,76.4,29.76,ESE,110,11.0,13.2,69,0.00,,---,0.00,833.00,VWS V14.01,2013-06-08 20:52:00,
2013-06-08 15:55:00,88.2,76.3,29.76,East,99,8.0,15.2,68,0.00,,---,0.00,949.00,VWS V14.01,2013-06-08 20:55:00,
2013-06-08 15:57:00,88.4,76.5,29.76,ESE,105,13.0,15.2,68,0.00,,---,0.00,939.00,VWS V14.01,2013-06-08 20:57:00,
2013-06-08 16:00:00,88.2,77.2,29.76,East,90,5.0,18.2,70,0.00,,---,0.00,874.00,VWS V14.01,2013-06-08 21:00:00,
2013-06-08 16:02:00,88.2,76.3,29.76,SSE,148,12.0,17.2,68,0.00,,---,0.00,872.00,VWS V14.01,2013-06-08 21:02:00,
2013-06-08 16:05:00,87.8,76.8,29.76,ESE,111,6.0,17.2,70,0.00,,---,0.00,821.00,VWS V14.01,2013-06-08 21:05:00,
2013-06-08 16:07:00,87.8,76.8,29.76,ESE,111,4.0,11.2,70,0.00,,---,0.00,824.00,VWS V14.01,2013-06-08 21:07:00,
2013-06-08 16:10:00,88.2,76.8,29.76,ESE,106,8.0,15.2,69,0.00,,---,0.00,819.00,VWS V14.01,2013-06-08 21:10:00,
2013-06-08 16:12:00,88.2,76.8,29.76,SSE,157,3.0,14.2,69,0.00,,---,0.00,835.00,VWS V14.01,2013-06-08 21:12:00,
2013-06-08 16:15:00,88.0,76.6,29.76,East,86,12.0,18.2,69,0.00,,---,0.00,833.00,VWS V14.01,2013-06-08 21:15:00,
2013-06-08 16:17:00,88.0,77.0,29.76,ESE,102,11.0,17.2,70,0.00,,---,0.00,830.00,VWS V14.01,2013-06-08 21:17:00,
2013-06-08 16:20:00,88.2,76.8,29.76,ESE,117,8.0,17.2,69,0.00,,---,0.00,874.00,VWS V14.01,2013-06-08 21:20:00,
2013-06-08 16:22:00,88.4,76.9,29.76,East,100,7.0,13.2,69,0.00,,---,0.00,874.00,VWS V14.01,2013-06-08 21:22:00,
2013-06-08 16:25:00,88.6,76.2,29.76,ESE,109,6.0,16.2,67,0.00,,---,0.00,239.00,VWS V14.01,2013-06-08 21:25:00,
2013-06-08 16:27:00,88.2,76.8,29.76,East,101,10.0,13.2,69,0.00,,---,0.00,239.00,VWS V14.01,2013-06-08 21:27:00,
2013-06-08 16:30:00,87.6,77.0,29.77,East,89,5.0,16.2,71,0.00,,---,0.00,793.00,VWS V14.01,2013-06-08 21:30:00,
2013-06-08 16:32:00,87.4,76.8,29.76,ESE,111,3.0,13.2,71,0.00,,---,0.00,782.00,VWS V14.01,2013-06-08 21:32:00,
2013-06-08 16:35:00,87.8,76.8,29.77,East,94,11.0,14.2,70,0.00,,---,0.00,782.00,VWS V14.01,2013-06-08 21:35:00,
2013-06-08 16:37:00,87.6,76.6,29.76,ESE,111,12.0,14.2,70,0.00,,---,0.00,838.00,VWS V14.01,2013-06-08 21:37:00,
2013-06-08 16:40:00,87.6,76.6,29.77,ENE,72,5.0,16.2,70,0.00,,---,0.00,786.00,VWS V14.01,2013-06-08 21:40:00,
2013-06-08 16:42:00,87.8,76.4,29.76,SSE,155,8.0,13.2,69,0.00,,---,0.00,793.00,VWS V14.01,2013-06-08 21:42:00,
2013-06-08 16:45:00,87.8,76.4,29.76,ENE,78,3.0,15.2,69,0.00,,---,0.00,722.00,VWS V14.01,2013-06-08 21:45:00,
2013-06-08 16:47:00,87.8,76.4,29.76,East,100,7.0,14.2,69,0.00,,---,0.00,707.00,VWS V14.01,2013-06-08 21:47:00,
2013-06-08 16:50:00,88.4,76.1,29.76,SE,126,12.0,17.2,67,0.00,,---,0.00,712.00,VWS V14.01,2013-06-08 21:50:00,
2013-06-08 16:52:00,88.2,76.3,29.76,SE,130,11.0,17.2,68,0.00,,---,0.00,708.00,VWS V14.01,2013-06-08 21:52:00,
2013-06-08 16:55:00,87.4,77.7,29.76,East,101,13.0,18.2,73,0.00,,---,0.00,707.00,VWS V14.01,2013-06-08 21:55:00,
2013-06-08 16:57:00,87.4,76.8,29.76,ESE,106,7.0,14.2,71,0.00,,---,0.00,742.00,VWS V14.01,2013-06-08 21:57:00,
2013-06-08 17:00:00,87.2,76.7,29.75,East,96,11.0,20.2,71,0.00,,---,0.00,766.00,VWS V14.01,2013-06-08 22:00:00,
2013-06-08 17:02:00,87.2,77.1,29.75,East,101,6.0,15.2,72,0.00,,---,0.00,810.00,VWS V14.01,2013-06-08 22:02:00,
2013-06-08 17:05:00,87.4,77.7,29.75,ESE,122,11.0,15.2,73,0.00,,---,0.00,218.00,VWS V14.01,2013-06-08 22:05:00,
2013-06-08 17:07:00,87.4,77.7,29.75,ESE,103,10.0,14.2,73,0.00,,---,0.00,218.00,VWS V14.01,2013-06-08 22:07:00,
2013-06-08 17:10:00,87.2,76.7,29.75,SE,146,4.0,14.2,71,0.00,,---,0.00,619.00,VWS V14.01,2013-06-08 22:10:00,
2013-06-08 17:12:00,87.2,76.7,29.75,SSE,159,11.0,13.2,71,0.00,,---,0.00,105.00,VWS V14.01,2013-06-08 22:12:00,
2013-06-08 17:15:00,87.2,77.1,29.75,SE,124,12.0,15.2,72,0.00,,---,0.00,91.00,VWS V14.01,2013-06-08 22:15:00,
2013-06-08 17:17:00,87.0,76.9,29.75,ESE,123,11.0,13.2,72,0.00,,---,0.00,93.00,VWS V14.01,2013-06-08 22:17:00,
2013-06-08 17:20:00,86.3,76.6,29.75,East,98,5.0,15.2,73,0.00,,---,0.00,111.00,VWS V14.01,2013-06-08 22:20:00,
2013-06-08 17:22:00,86.1,76.8,29.75,ESE,119,5.0,11.2,74,0.00,,---,0.00,102.00,VWS V14.01,2013-06-08 22:22:00,
2013-06-08 17:25:00,85.5,76.7,29.75,SE,128,10.0,15.2,75,0.00,,---,0.00,83.00,VWS V14.01,2013-06-08 22:25:00,
2013-06-08 17:27:00,85.3,76.5,29.75,SE,140,11.0,15.2,75,0.00,,---,0.00,74.00,VWS V14.01,2013-06-08 22:27:00,
2013-06-08 17:30:00,84.9,76.5,29.76,SE,139,7.0,15.2,76,0.00,,---,0.00,53.00,VWS V14.01,2013-06-08 22:30:00,
2013-06-08 17:32:00,84.9,76.1,29.76,SE,142,11.0,15.2,75,0.00,,---,0.00,47.00,VWS V14.01,2013-06-08 22:32:00,
2013-06-08 17:35:00,84.5,76.5,29.76,East,94,9.0,19.2,77,0.00,,---,0.00,37.00,VWS V14.01,2013-06-08 22:35:00,
2013-06-08 17:37:00,84.5,76.1,29.76,SE,134,12.0,16.2,76,0.00,,---,0.00,35.00,VWS V14.01,2013-06-08 22:37:00,
2013-06-08 17:40:00,84.1,76.1,29.76,SSE,163,13.0,17.2,77,0.00,,---,0.00,26.00,VWS V14.01,2013-06-08 22:40:00,
2013-06-08 17:42:00,84.0,76.0,29.76,SE,146,12.0,15.2,77,0.00,,---,0.00,25.00,VWS V14.01,2013-06-08 22:42:00,
2013-06-08 17:45:00,84.1,76.5,29.75,SSE,149,9.0,18.2,78,0.00,,---,0.00,19.00,VWS V14.01,2013-06-08 22:45:00,
2013-06-08 17:47:00,84.1,76.5,29.75,SE,132,13.0,15.2,78,0.00,,---,0.00,19.00,VWS V14.01,2013-06-08 22:47:00,
2013-06-08 17:50:00,84.0,76.4,29.75,ESE,113,6.0,15.2,78,0.00,,---,0.00,14.00,VWS V14.01,2013-06-08 22:50:00,
2013-06-08 17:52:00,83.8,76.2,29.75,SE,128,7.0,12.2,78,0.00,,---,0.00,12.00,VWS V14.01,2013-06-08 22:52:00,
2013-06-08 17:55:00,83.6,76.0,29.75,ESE,122,9.0,17.2,78,0.00,,---,0.00,12.00,VWS V14.01,2013-06-08 22:55:00,
2013-06-08 17:57:00,83.4,75.8,29.75,SSE,154,10.0,16.2,78,0.00,,---,0.00,12.00,VWS V14.01,2013-06-08 22:57:00,
2013-06-08 18:00:00,83.4,76.2,29.75,ESE,118,6.0,19.2,79,0.00,,---,0.00,11.00,VWS V14.01,2013-06-08 23:00:00,
2013-06-08 18:02:00,83.4,76.2,29.75,SSE,147,4.0,8.2,79,0.00,,---,0.00,11.00,VWS V14.01,2013-06-08 23:02:00,
2013-06-08 18:05:00,83.6,76.4,29.75,ESE,117,9.0,14.2,79,0.00,,---,0.00,9.00,VWS V14.01,2013-06-08 23:05:00,
2013-06-08 18:07:00,83.6,76.4,29.75,ESE,103,12.0,13.2,79,0.00,,---,0.00,9.00,VWS V14.01,2013-06-08 23:07:00,
2013-06-08 18:10:00,83.8,76.6,29.75,SE,138,11.0,16.2,79,0.00,,---,0.00,9.00,VWS V14.01,2013-06-08 23:10:00,
2013-06-08 18:12:00,83.8,76.2,29.75,SE,134,14.0,15.2,78,0.00,,---,0.00,7.00,VWS V14.01,2013-06-08 23:12:00,
2013-06-08 18:15:00,84.0,76.8,29.76,SE,134,5.0,16.2,79,0.00,,---,0.00,7.00,VWS V14.01,2013-06-08 23:15:00,
2013-06-08 18:17:00,84.0,76.8,29.76,SSE,153,6.0,7.2,79,0.00,,---,0.00,7.00,VWS V14.01,2013-06-08 23:17:00,
2013-06-08 18:20:00,83.8,76.6,29.76,SSE,148,5.0,13.2,79,0.00,,---,0.00,7.00,VWS V14.01,2013-06-08 23:20:00,
2013-06-08 18:22:00,83.8,77.0,29.76,SE,135,9.0,13.2,80,0.00,,---,0.00,7.00,VWS V14.01,2013-06-08 23:22:00,
2013-06-08 18:25:00,83.6,76.8,29.76,SSE,153,9.0,15.2,80,0.00,,---,0.00,7.00,VWS V14.01,2013-06-08 23:25:00,
2013-06-08 18:27:00,83.4,76.6,29.76,ESE,119,5.0,11.2,80,0.00,,---,0.00,7.00,VWS V14.01,2013-06-08 23:27:00,
2013-06-08 18:30:00,83.4,76.2,29.76,ESE,119,4.0,15.2,79,0.00,,---,0.00,7.00,VWS V14.01,2013-06-08 23:30:00,
2013-06-08 18:32:00,83.2,76.0,29.76,South,175,9.0,15.2,79,0.00,,---,0.00,7.00,VWS V14.01,2013-06-08 23:32:00,
2013-06-08 18:35:00,83.0,76.2,29.76,SE,139,9.0,16.2,80,0.00,,---,0.00,7.00,VWS V14.01,2013-06-08 23:35:00,
2013-06-08 18:37:00,83.0,76.2,29.76,SSE,150,11.0,15.2,80,0.00,,---,0.00,7.00,VWS V14.01,2013-06-08 23:37:00,
2013-06-08 18:40:00,82.8,76.0,29.76,SE,129,12.0,18.2,80,0.00,,---,0.00,7.00,VWS V14.01,2013-06-08 23:40:00,
2013-06-08 18:42:00,82.8,76.0,29.76,ESE,117,15.0,16.2,80,0.00,,---,0.00,7.00,VWS V14.01,2013-06-08 23:42:00,
2013-06-08 18:45:00,83.0,76.2,29.75,SE,130,7.0,17.2,80,0.00,,---,0.00,7.00,VWS V14.01,2013-06-08 23:45:00,
2013-06-08 18:47:00,83.2,76.4,29.75,ENE,77,10.0,12.2,80,0.00,,---,0.00,7.00,VWS V14.01,2013-06-08 23:47:00,
2013-06-08 18:50:00,83.0,76.2,29.75,SSE,152,5.0,18.2,80,0.00,,---,0.00,9.00,VWS V14.01,2013-06-08 23:50:00,
2013-06-08 18:52:00,82.8,76.0,29.75,SE,132,10.0,16.2,80,0.00,,---,0.00,9.00,VWS V14.01,2013-06-08 23:52:00,
2013-06-08 18:55:00,82.6,76.2,29.75,SE,137,9.0,17.2,81,0.00,,---,0.00,9.00,VWS V14.01,2013-06-08 23:55:00,
2013-06-08 18:57:00,82.6,76.9,29.75,SSE,153,11.0,16.2,83,0.00,,---,0.00,9.00,VWS V14.01,2013-06-08 23:57:00,
2013-06-08 19:00:00,82.6,76.6,29.75,SE,133,6.0,16.2,82,0.00,,---,0.00,9.00,VWS V14.01,2013-06-09 00:00:00,
2013-06-08 19:02:00,82.6,76.6,29.75,SE,135,9.0,10.2,82,0.00,,---,0.00,9.00,VWS V14.01,2013-06-09 00:02:00,
2013-06-08 19:05:00,82.6,76.6,29.75,ESE,108,10.0,18.2,82,0.00,,---,0.00,11.00,VWS V14.01,2013-06-09 00:05:00,
2013-06-08 19:07:00,82.6,76.6,29.75,East,88,10.0,11.2,82,0.00,,---,0.00,11.00,VWS V14.01,2013-06-09 00:07:00,
2013-06-08 19:10:00,82.4,77.1,29.75,East,95,6.0,13.2,84,0.00,,---,0.00,12.00,VWS V14.01,2013-06-09 00:10:00,
2013-06-08 19:12:00,82.4,77.1,29.75,SE,124,13.0,14.2,84,0.00,,---,0.00,12.00,VWS V14.01,2013-06-09 00:12:00,
2013-06-08 19:15:00,82.0,76.7,29.73,East,96,7.0,16.2,84,0.00,,---,0.00,14.00,VWS V14.01,2013-06-09 00:15:00,
2013-06-08 19:17:00,82.0,76.7,29.73,SE,140,11.0,13.2,84,0.00,,---,0.00,14.00,VWS V14.01,2013-06-09 00:17:00,
2013-06-08 19:20:00,82.4,77.1,29.73,East,94,2.0,15.2,84,0.00,,---,0.00,18.00,VWS V14.01,2013-06-09 00:20:00,
2013-06-08 19:22:00,82.4,77.1,29.73,ESE,107,10.0,11.2,84,0.00,,---,0.00,18.00,VWS V14.01,2013-06-09 00:22:00,
2013-06-08 19:25:00,81.6,76.7,29.73,East,96,5.0,15.2,85,0.00,,---,0.00,21.00,VWS V14.01,2013-06-09 00:25:00,
2013-06-08 19:27:00,81.6,76.7,29.73,ESE,102,5.0,12.2,85,0.00,,---,0.00,21.00,VWS V14.01,2013-06-09 00:27:00,
2013-06-08 19:30:00,81.2,76.6,29.73,ESE,118,10.0,16.2,86,0.01,,---,0.01,33.00,VWS V14.01,2013-06-09 00:30:00,
2013-06-08 19:32:00,81.2,76.6,29.73,ESE,119,6.0,11.2,86,0.01,,---,0.01,33.00,VWS V14.01,2013-06-09 00:32:00,
2013-06-08 19:35:00,81.2,76.6,29.73,ESE,117,7.0,16.2,86,0.01,,---,0.01,60.00,VWS V14.01,2013-06-09 00:35:00,
2013-06-08 19:37:00,81.2,77.0,29.73,SE,129,5.0,13.2,87,0.01,,---,0.01,62.00,VWS V14.01,2013-06-09 00:37:00,
2013-06-08 19:40:00,81.4,76.8,29.73,ESE,115,5.0,13.2,86,0.01,,---,0.01,53.00,VWS V14.01,2013-06-09 00:40:00,
2013-06-08 19:42:00,81.4,76.8,29.73,ESE,121,4.0,12.2,86,0.01,,---,0.01,47.00,VWS V14.01,2013-06-09 00:42:00,
2013-06-08 19:45:00,81.4,76.8,29.75,SE,138,11.0,13.2,86,0.01,,---,0.01,26.00,VWS V14.01,2013-06-09 00:45:00,
2013-06-08 19:47:00,81.4,76.8,29.75,ESE,107,9.0,12.2,86,0.01,,---,0.01,26.00,VWS V14.01,2013-06-09 00:47:00,
2013-06-08 19:50:00,81.6,77.0,29.75,ESE,121,3.0,12.2,86,0.01,,---,0.01,14.00,VWS V14.01,2013-06-09 00:50:00,
2013-06-08 19:52:00,81.6,77.0,29.75,ESE,103,7.0,14.2,86,0.01,,---,0.01,12.00,VWS V14.01,2013-06-09 00:52:00,
2013-06-08 19:55:00,82.0,77.1,29.75,SE,128,6.0,14.2,85,0.01,,---,0.01,7.00,VWS V14.01,2013-06-09 00:55:00,
2013-06-08 19:57:00,82.0,77.1,29.75,ESE,112,10.0,11.2,85,0.01,,---,0.01,7.00,VWS V14.01,2013-06-09 00:57:00,
2013-06-08 20:00:00,82.0,76.7,29.73,ESE,115,8.0,15.2,84,0.01,,---,0.01,5.00,VWS V14.01,2013-06-09 01:00:00,
2013-06-08 20:02:00,81.8,76.5,29.73,ESE,121,9.0,13.2,84,0.01,,---,0.01,5.00,VWS V14.01,2013-06-09 01:02:00,
2013-06-08 20:05:00,81.6,76.3,29.73,East,96,11.0,13.2,84,0.01,,---,0.01,0.00,VWS V14.01,2013-06-09 01:05:00,
2013-06-08 20:07:00,81.6,76.3,29.73,ESE,103,6.0,12.2,84,0.01,,---,0.01,0.00,VWS V14.01,2013-06-09 01:07:00,
2013-06-08 20:10:00,81.4,76.5,29.73,SE,134,9.0,16.2,85,0.01,,---,0.01,0.00,VWS V14.01,2013-06-09 01:10:00,
2013-06-08 20:12:00,81.4,76.5,29.73,SSE,150,4.0,10.2,85,0.01,,---,0.01,0.00,VWS V14.01,2013-06-09 01:12:00,
2013-06-08 20:15:00,81.4,76.5,29.74,SE,128,6.0,14.2,85,0.01,,---,0.01,0.00,VWS V14.01,2013-06-09 01:15:00,
2013-06-08 20:17:00,81.4,76.5,29.74,ESE,113,7.0,8.2,85,0.01,,---,0.01,0.00,VWS V14.01,2013-06-09 01:17:00,
2013-06-08 20:20:00,81.4,76.5,29.74,SE,132,11.0,12.2,85,0.01,,---,0.01,0.00,VWS V14.01,2013-06-09 01:20:00,
2013-06-08 20:22:00,81.4,76.5,29.74,SE,132,5.0,12.2,85,0.01,,---,0.01,0.00,VWS V14.01,2013-06-09 01:22:00,
2013-06-08 20:25:00,81.6,76.7,29.74,ESE,119,5.0,12.2,85,0.01,,---,0.01,0.00,VWS V14.01,2013-06-09 01:25:00,
2013-06-08 20:27:00,81.6,76.7,29.74,ESE,113,10.0,11.2,85,0.01,,---,0.01,0.00,VWS V14.01,2013-06-09 01:27:00,
2013-06-08 20:30:00,81.6,76.3,29.75,SE,127,6.0,14.2,84,0.01,,---,0.01,0.00,VWS V14.01,2013-06-09 01:30:00,
2013-06-08 20:32:00,81.6,76.3,29.75,SSE,157,4.0,11.2,84,0.00,,---,0.01,0.00,VWS V14.01,2013-06-09 01:32:00,
2013-06-08 20:35:00,82.0,76.7,29.75,SE,125,10.0,13.2,84,0.00,,---,0.01,0.00,VWS V14.01,2013-06-09 01:35:00,
2013-06-08 20:37:00,82.2,76.9,29.75,SE,135,9.0,13.2,84,0.00,,---,0.01,0.00,VWS V14.01,2013-06-09 01:37:00,
2013-06-08 20:40:00,82.4,76.4,29.75,ESE,123,5.0,13.2,82,0.00,,---,0.01,0.00,VWS V14.01,2013-06-09 01:40:00,
2013-06-08 20:42:00,82.4,76.4,29.75,ESE,120,4.0,6.2,82,0.00,,---,0.01,0.00,VWS V14.01,2013-06-09 01:42:00,
2013-06-08 20:45:00,82.2,76.2,29.76,SE,137,2.0,6.2,82,0.00,,---,0.01,0.00,VWS V14.01,2013-06-09 01:45:00,
2013-06-08 20:47:00,82.2,76.5,29.76,SE,141,6.0,8.2,83,0.00,,---,0.01,0.00,VWS V14.01,2013-06-09 01:47:00,
2013-06-08 20:50:00,82.2,76.5,29.76,SE,144,2.0,8.2,83,0.00,,---,0.01,0.00,VWS V14.01,2013-06-09 01:50:00,
2013-06-08 20:52:00,82.2,76.5,29.76,SE,144,2.0,3.2,83,0.00,,---,0.01,0.00,VWS V14.01,2013-06-09 01:52:00,
2013-06-08 20:55:00,81.8,76.5,29.76,SE,125,4.0,6.2,84,0.00,,---,0.01,0.00,VWS V14.01,2013-06-09 01:55:00,
2013-06-08 20:57:00,81.8,76.5,29.76,SE,125,1.0,5.2,84,0.00,,---,0.01,0.00,VWS V14.01,2013-06-09 01:57:00,
2013-06-08 21:00:00,81.6,76.3,29.78,SE,125,4.0,6.2,84,0.00,,---,0.01,0.00,VWS V14.01,2013-06-09 02:00:00,
2013-06-08 21:02:00,81.6,76.3,29.78,ESE,105,4.0,7.2,84,0.00,,---,0.01,0.00,VWS V14.01,2013-06-09 02:02:00,
2013-06-08 21:05:00,81.6,76.3,29.78,SE,126,3.0,7.2,84,0.00,,---,0.01,0.00,VWS V14.01,2013-06-09 02:05:00,
2013-06-08 21:07:00,81.6,76.3,29.78,SE,125,2.0,4.2,84,0.00,,---,0.01,0.00,VWS V14.01,2013-06-09 02:07:00,
2013-06-08 21:10:00,81.6,76.3,29.78,ESE,123,6.0,7.2,84,0.00,,---,0.01,0.00,VWS V14.01,2013-06-09 02:10:00,
2013-06-08 21:12:00,81.6,76.3,29.78,ESE,123,4.0,7.2,84,0.00,,---,0.01,0.00,VWS V14.01,2013-06-09 02:12:00,
2013-06-08 21:15:00,81.8,76.5,29.77,ESE,117,1.0,10.2,84,0.00,,---,0.01,0.00,VWS V14.01,2013-06-09 02:15:00,
2013-06-08 21:17:00,81.8,76.5,29.77,ESE,117,4.0,6.2,84,0.00,,---,0.01,0.00,VWS V14.01,2013-06-09 02:17:00,
2013-06-08 21:20:00,82.0,76.3,29.77,ESE,115,4.0,7.2,83,0.00,,---,0.01,0.00,VWS V14.01,2013-06-09 02:20:00,
2013-06-08 21:22:00,82.0,76.7,29.77,ESE,115,2.0,5.2,84,0.00,,---,0.01,0.00,VWS V14.01,2013-06-09 02:22:00,
2013-06-08 21:25:00,82.0,76.7,29.77,East,96,2.0,8.2,84,0.00,,---,0.01,0.00,VWS V14.01,2013-06-09 02:25:00,
2013-06-08 21:27:00,82.0,76.7,29.77,East,100,6.0,9.2,84,0.00,,---,0.01,0.00,VWS V14.01,2013-06-09 02:27:00,
2013-06-08 21:30:00,82.0,76.3,29.76,ESE,104,6.0,9.2,83,0.00,,---,0.01,0.00,VWS V14.01,2013-06-09 02:30:00,
2013-06-08 21:32:00,82.0,76.3,29.76,East,97,4.0,8.2,83,0.00,,---,0.01,0.00,VWS V14.01,2013-06-09 02:32:00,
2013-06-08 21:35:00,82.0,76.3,29.76,ESE,104,6.0,9.2,83,0.00,,---,0.01,0.00,VWS V14.01,2013-06-09 02:35:00,
2013-06-08 21:37:00,82.0,76.3,29.76,East,92,4.0,7.2,83,0.00,,---,0.01,0.00,VWS V14.01,2013-06-09 02:37:00,
2013-06-08 21:40:00,82.2,76.5,29.76,ESE,114,2.0,7.2,83,0.00,,---,0.01,0.00,VWS V14.01,2013-06-09 02:40:00,
2013-06-08 21:42:00,82.0,76.3,29.76,ESE,114,3.0,4.2,83,0.00,,---,0.01,0.00,VWS V14.01,2013-06-09 02:42:00,
2013-06-08 21:45:00,81.8,76.5,29.78,ESE,114,4.0,5.2,84,0.00,,---,0.01,0.00,VWS V14.01,2013-06-09 02:45:00,
2013-06-08 21:47:00,81.8,76.5,29.78,ESE,114,2.0,5.2,84,0.00,,---,0.01,0.00,VWS V14.01,2013-06-09 02:47:00,
2013-06-08 21:50:00,81.6,76.3,29.78,ESE,113,2.0,5.2,84,0.00,,---,0.01,0.00,VWS V14.01,2013-06-09 02:50:00,
2013-06-08 21:52:00,81.6,76.3,29.78,ESE,113,0.0,3.2,84,0.00,,---,0.01,0.00,VWS V14.01,2013-06-09 02:52:00,
2013-06-08 21:55:00,81.4,76.1,29.78,SE,133,2.0,7.2,84,0.00,,---,0.01,0.00,VWS V14.01,2013-06-09 02:55:00,
2013-06-08 21:57:00,81.4,76.1,29.78,SE,132,4.0,7.2,84,0.00,,---,0.01,0.00,VWS V14.01,2013-06-09 02:57:00,
2013-06-08 22:00:00,81.4,76.5,29.78,SE,132,0.0,7.2,85,0.00,,---,0.01,0.00,VWS V14.01,2013-06-09 03:00:00,
2013-06-08 22:02:00,81.4,76.5,29.78,SE,132,0.0,2.2,85,0.00,,---,0.01,0.00,VWS V14.01,2013-06-09 03:02:00,
2013-06-08 22:05:00,81.8,76.5,29.78,SE,128,2.0,5.2,84,0.00,,---,0.01,0.00,VWS V14.01,2013-06-09 03:05:00,
2013-06-08 22:07:00,81.8,76.5,29.78,SE,128,3.0,4.2,84,0.00,,---,0.01,0.00,VWS V14.01,2013-06-09 03:07:00,
2013-06-08 22:10:00,81.8,76.5,29.78,SE,128,1.0,5.2,84,0.00,,---,0.01,0.00,VWS V14.01,2013-06-09 03:10:00,
2013-06-08 22:12:00,81.8,76.5,29.78,SE,128,1.0,3.2,84,0.00,,---,0.01,0.00,VWS V14.01,2013-06-09 03:12:00,
2013-06-08 22:15:00,81.6,76.3,29.79,SE,128,0.0,5.2,84,0.00,,---,0.01,0.00,VWS V14.01,2013-06-09 03:15:00,
2013-06-08 22:17:00,81.6,76.3,29.79,SE,128,0.0,1.2,84,0.00,,---,0.01,0.00,VWS V14.01,2013-06-09 03:17:00,
2013-06-08 22:20:00,81.6,76.3,29.79,SE,128,0.0,5.2,84,0.00,,---,0.01,0.00,VWS V14.01,2013-06-09 03:20:00,
2013-06-08 22:22:00,81.6,76.3,29.79,SE,128,0.0,2.2,84,0.00,,---,0.01,0.00,VWS V14.01,2013-06-09 03:22:00,
2013-06-08 22:25:00,81.8,76.5,29.79,SE,128,2.0,4.2,84,0.00,,---,0.01,0.00,VWS V14.01,2013-06-09 03:25:00,
2013-06-08 22:27:00,81.8,76.5,29.79,SE,128,3.0,4.2,84,0.00,,---,0.01,0.00,VWS V14.01,2013-06-09 03:27:00,
2013-06-08 22:30:00,82.0,76.7,29.80,SE,128,3.0,5.2,84,0.00,,---,0.01,0.00,VWS V14.01,2013-06-09 03:30:00,
2013-06-08 22:32:00,82.0,76.7,29.80,SE,128,1.0,4.2,84,0.00,,---,0.01,0.00,VWS V14.01,2013-06-09 03:32:00,
2013-06-08 22:35:00,82.0,76.7,29.80,SE,125,4.0,5.2,84,0.00,,---,0.01,0.00,VWS V14.01,2013-06-09 03:35:00,
2013-06-08 22:37:00,82.0,76.7,29.80,SE,125,3.0,5.2,84,0.00,,---,0.01,0.00,VWS V14.01,2013-06-09 03:37:00,
2013-06-08 22:40:00,81.6,76.3,29.80,SE,127,3.0,7.2,84,0.00,,---,0.01,0.00,VWS V14.01,2013-06-09 03:40:00,
2013-06-08 22:42:00,81.6,76.3,29.80,SE,127,2.0,5.2,84,0.00,,---,0.01,0.00,VWS V14.01,2013-06-09 03:42:00,
2013-06-08 22:45:00,81.4,76.1,29.81,SE,127,3.0,7.2,84,0.00,,---,0.01,0.00,VWS V14.01,2013-06-09 03:45:00,
2013-06-08 22:47:00,81.4,76.1,29.81,SE,127,4.0,6.2,84,0.00,,---,0.01,0.00,VWS V14.01,2013-06-09 03:47:00,
2013-06-08 22:50:00,81.6,76.7,29.81,SE,127,2.0,6.2,85,0.00,,---,0.01,0.00,VWS V14.01,2013-06-09 03:50:00,
2013-06-08 22:52:00,81.8,76.8,29.81,SE,127,3.0,4.2,85,0.00,,---,0.01,0.00,VWS V14.01,2013-06-09 03:52:00,
2013-06-08 22:55:00,81.6,76.7,29.81,SE,132,3.0,7.2,85,0.00,,---,0.01,0.00,VWS V14.01,2013-06-09 03:55:00,
2013-06-08 22:57:00,81.6,76.3,29.81,SE,131,3.0,6.2,84,0.00,,---,0.01,0.00,VWS V14.01,2013-06-09 03:57:00,
2013-06-08 23:00:00,81.4,76.1,29.81,SE,137,6.0,9.2,84,0.00,,---,0.01,0.00,VWS V14.01,2013-06-09 04:00:00,
2013-06-08 23:01:00,81.4,76.1,29.81,SE,138,5.0,9.2,84,0.00,,---,0.01,0.00,VWS V14.01,2013-06-09 04:01:00,
2013-06-08 23:05:00,81.4,76.5,29.81,SE,137,3.0,10.2,85,0.00,,---,0.01,0.00,VWS V14.01,2013-06-09 04:05:00,
2013-06-08 23:06:00,81.4,76.5,29.81,SE,137,3.0,10.2,85,0.00,,---,0.01,0.00,VWS V14.01,2013-06-09 04:06:00,
2013-06-08 23:10:00,81.2,76.3,29.81,SE,128,4.0,11.2,85,0.00,,---,0.01,0.00,VWS V14.01,2013-06-09 04:10:00,
2013-06-08 23:11:00,81.2,76.3,29.81,SE,128,4.0,11.2,85,0.00,,---,0.01,0.00,VWS V14.01,2013-06-09 04:11:00,
2013-06-08 23:15:00,81.2,76.3,29.81,South,178,4.0,11.2,85,0.00,,---,0.01,0.00,VWS V14.01,2013-06-09 04:15:00,
2013-06-08 23:16:00,81.2,76.3,29.81,South,178,4.0,11.2,85,0.00,,---,0.01,0.00,VWS V14.01,2013-06-09 04:16:00,
2013-06-08 23:20:00,81.4,76.5,29.81,SSE,155,6.0,12.2,85,0.00,,---,0.01,0.00,VWS V14.01,2013-06-09 04:20:00,
2013-06-08 23:21:00,81.4,76.5,29.81,SSE,155,6.0,12.2,85,0.00,,---,0.01,0.00,VWS V14.01,2013-06-09 04:21:00,
2013-06-08 23:25:00,81.6,76.7,29.81,SSE,153,5.0,13.2,85,0.00,,---,0.01,0.00,VWS V14.01,2013-06-09 04:25:00,
2013-06-08 23:26:00,81.6,76.7,29.81,SSE,159,3.0,13.2,85,0.00,,---,0.01,0.00,VWS V14.01,2013-06-09 04:26:00,
2013-06-08 23:30:00,81.6,76.3,29.80,SSE,149,5.0,13.2,84,0.00,,---,0.01,0.00,VWS V14.01,2013-06-09 04:30:00,
2013-06-08 23:31:00,81.6,76.3,29.80,SSE,148,5.0,6.2,84,0.00,,---,0.01,0.00,VWS V14.01,2013-06-09 04:31:00,
2013-06-08 23:35:00,81.4,76.5,29.80,SSE,155,5.0,11.2,85,0.00,,---,0.01,0.00,VWS V14.01,2013-06-09 04:35:00,
2013-06-08 23:36:00,81.4,76.5,29.80,SSE,148,8.0,10.2,85,0.00,,---,0.01,0.00,VWS V14.01,2013-06-09 04:36:00,
2013-06-08 23:40:00,81.2,76.3,29.80,SSE,161,4.0,13.2,85,0.00,,---,0.01,0.00,VWS V14.01,2013-06-09 04:40:00,
2013-06-08 23:41:00,81.2,76.6,29.80,SSE,161,8.0,9.2,86,0.00,,---,0.01,0.00,VWS V14.01,2013-06-09 04:41:00,
2013-06-08 23:45:00,81.2,76.6,29.79,SE,134,10.0,15.2,86,0.00,,---,0.01,0.00,VWS V14.01,2013-06-09 04:45:00,
2013-06-08 23:46:00,81.4,76.8,29.79,SE,142,13.0,16.2,86,0.00,,---,0.01,0.00,VWS V14.01,2013-06-09 04:46:00,
2013-06-08 23:50:00,81.6,76.7,29.79,South,178,4.0,16.2,85,0.00,,---,0.01,0.00,VWS V14.01,2013-06-09 04:50:00,
2013-06-08 23:51:00,81.4,76.5,29.79,South,177,3.0,5.2,85,0.00,,---,0.01,0.00,VWS V14.01,2013-06-09 04:51:00,
2013-06-08 23:55:00,81.2,76.3,29.79,SE,144,8.0,12.2,85,0.00,,---,0.01,0.00,VWS V14.01,2013-06-09 04:55:00,
2013-06-08 23:56:00,81.2,76.3,29.79,South,178,5.0,12.2,85,0.00,,---,0.01,0.00,VWS V14.01,2013-06-09 04:56:00,